Time,TemperatureF,DewpointF,PressureIn,WindDirection,WindDirectionDegrees,WindSpeedMPH,WindSpeedGustMPH,Humidity,HourlyPrecipIn,Conditions,Clouds,dailyrainin,SoftwareType,DateUTC
2013-11-10 00:01:00,43.5,29.7,29.29,East,90,0.0,0.0,58,0.00,,---,0.00,VWS V13.01,2013-11-10 05:01:00,
2013-11-10 00:02:00,43.5,29.7,29.29,East,90,0.0,0.0,58,0.00,,---,0.00,VWS V13.01,2013-11-10 05:02:00,
2013-11-10 00:03:00,43.5,29.7,29.29,SSE,158,0.0,0.0,58,0.00,,---,0.00,VWS V13.01,2013-11-10 05:03:00,
2013-11-10 00:05:00,43.5,29.7,29.29,SSE,158,0.0,0.0,58,0.00,,---,0.00,VWS V13.01,2013-11-10 05:05:00,
2013-11-10 00:06:00,43.5,29.7,29.29,SSE,158,0.0,0.0,58,0.00,,---,0.00,VWS V13.01,2013-11-10 05:06:00,
2013-11-10 00:07:00,43.5,29.7,29.29,SSE,158,0.0,0.0,58,0.00,,---,0.00,VWS V13.01,2013-11-10 05:07:00,
2013-11-10 00:09:00,43.5,29.7,29.29,SSE,158,0.0,0.0,58,0.00,,---,0.00,VWS V13.01,2013-11-10 05:09:00,
2013-11-10 00:10:00,43.5,29.7,29.29,SSE,158,0.0,0.0,58,0.00,,---,0.00,VWS V13.01,2013-11-10 05:10:00,
2013-11-10 00:13:00,43.5,29.7,29.29,SSE,158,0.0,0.0,58,0.00,,---,0.00,VWS V13.01,2013-11-10 05:13:00,
2013-11-10 00:14:00,43.5,29.7,29.29,SSE,158,0.0,0.0,58,0.00,,---,0.00,VWS V13.01,2013-11-10 05:14:00,
2013-11-10 00:15:00,43.5,29.7,29.29,SSE,158,0.0,0.0,58,0.00,,---,0.00,VWS V13.01,2013-11-10 05:15:00,
2013-11-10 00:16:00,43.5,30.6,29.29,SSE,158,0.0,0.0,60,0.00,,---,0.00,VWS V13.01,2013-11-10 05:16:00,
2013-11-10 00:17:00,43.5,30.6,29.29,SSE,158,0.0,0.0,60,0.00,,---,0.00,VWS V13.01,2013-11-10 05:17:00,
2013-11-10 00:19:00,43.5,30.6,29.29,SSE,158,0.0,0.0,60,0.00,,---,0.00,VWS V13.01,2013-11-10 05:19:00,
2013-11-10 00:21:00,43.5,30.6,29.29,SSE,158,0.0,0.0,60,0.00,,---,0.00,VWS V13.01,2013-11-10 05:21:00,
2013-11-10 00:23:00,43.5,30.6,29.29,SSE,158,0.0,0.0,60,0.00,,---,0.00,VWS V13.01,2013-11-10 05:23:00,
2013-11-10 00:24:00,43.5,30.6,29.29,SSE,158,0.0,0.0,60,0.00,,---,0.00,VWS V13.01,2013-11-10 05:24:00,
2013-11-10 00:25:00,43.5,30.6,29.29,SSE,158,0.0,0.0,60,0.00,,---,0.00,VWS V13.01,2013-11-10 05:25:00,
2013-11-10 00:26:00,43.5,30.6,29.29,SSE,158,0.0,0.0,60,0.00,,---,0.00,VWS V13.01,2013-11-10 05:26:00,
2013-11-10 00:29:00,43.5,30.6,29.29,SSE,158,0.0,0.0,60,0.00,,---,0.00,VWS V13.01,2013-11-10 05:29:00,
2013-11-10 00:30:00,43.5,30.6,29.29,SSE,158,0.0,0.0,60,0.00,,---,0.00,VWS V13.01,2013-11-10 05:30:00,
2013-11-10 00:31:00,43.5,30.6,29.29,SSE,158,0.0,0.0,60,0.00,,---,0.00,VWS V13.01,2013-11-10 05:31:00,
2013-11-10 00:34:00,43.5,30.6,29.29,SSE,158,0.0,0.0,60,0.00,,---,0.00,VWS V13.01,2013-11-10 05:34:00,
2013-11-10 00:36:00,43.5,30.6,29.29,SSE,158,0.0,0.0,60,0.00,,---,0.00,VWS V13.01,2013-11-10 05:36:00,
2013-11-10 00:37:00,43.5,30.6,29.29,SSE,158,0.0,0.0,60,0.00,,---,0.00,VWS V13.01,2013-11-10 05:37:00,
2013-11-10 00:39:00,43.5,30.6,29.26,SSE,158,0.0,0.0,60,0.00,,---,0.00,VWS V13.01,2013-11-10 05:39:00,
2013-11-10 00:40:00,43.5,30.6,29.26,SSE,158,0.0,0.0,60,0.00,,---,0.00,VWS V13.01,2013-11-10 05:40:00,
2013-11-10 00:41:00,43.5,30.6,29.26,SSE,158,0.0,0.0,60,0.00,,---,0.00,VWS V13.01,2013-11-10 05:41:00,
2013-11-10 00:42:00,43.5,30.6,29.26,SSE,158,0.0,0.0,60,0.00,,---,0.00,VWS V13.01,2013-11-10 05:42:00,
2013-11-10 00:44:00,43.5,30.6,29.26,SSE,158,0.0,0.0,60,0.00,,---,0.00,VWS V13.01,2013-11-10 05:44:00,
2013-11-10 00:45:00,43.5,30.6,29.26,SSE,158,0.0,0.0,60,0.00,,---,0.00,VWS V13.01,2013-11-10 05:45:00,
2013-11-10 00:46:00,43.5,30.6,29.26,SSE,158,0.0,0.0,60,0.00,,---,0.00,VWS V13.01,2013-11-10 05:46:00,
2013-11-10 00:47:00,43.5,30.6,29.26,SSE,158,0.0,0.0,60,0.00,,---,0.00,VWS V13.01,2013-11-10 05:47:00,
2013-11-10 00:49:00,43.5,30.6,29.26,SSE,158,0.0,0.0,60,0.00,,---,0.00,VWS V13.01,2013-11-10 05:49:00,
2013-11-10 00:51:00,43.5,30.6,29.26,SSE,158,0.0,0.0,60,0.00,,---,0.00,VWS V13.01,2013-11-10 05:51:00,
2013-11-10 00:54:00,43.5,30.6,29.26,SSE,158,0.0,0.0,60,0.00,,---,0.00,VWS V13.01,2013-11-10 05:54:00,
2013-11-10 00:56:00,43.7,30.7,29.26,SSE,158,0.0,0.0,60,0.00,,---,0.00,VWS V13.01,2013-11-10 05:56:00,
2013-11-10 00:58:00,43.7,30.7,29.26,SSE,158,0.0,0.0,60,0.00,,---,0.00,VWS V13.01,2013-11-10 05:58:00,
2013-11-10 00:59:00,43.7,30.7,29.26,SSE,158,0.0,0.0,60,0.00,,---,0.00,VWS V13.01,2013-11-10 05:59:00,
2013-11-10 01:00:00,43.7,30.7,29.26,SSE,158,0.0,0.0,60,0.00,,---,0.00,VWS V13.01,2013-11-10 06:00:00,
2013-11-10 01:01:00,43.7,30.7,29.26,SSE,158,0.0,0.0,60,0.00,,---,0.00,VWS V13.01,2013-11-10 06:01:00,
2013-11-10 01:04:00,43.7,30.7,29.26,SSW,202,0.0,0.0,60,0.00,,---,0.00,VWS V13.01,2013-11-10 06:04:00,
2013-11-10 01:05:00,43.7,30.7,29.26,SSW,202,0.0,0.0,60,0.00,,---,0.00,VWS V13.01,2013-11-10 06:05:00,
2013-11-10 01:06:00,43.7,30.7,29.26,SSW,202,0.0,0.0,60,0.00,,---,0.00,VWS V13.01,2013-11-10 06:06:00,
2013-11-10 01:08:00,43.7,30.7,29.26,SSW,202,0.0,0.0,60,0.00,,---,0.00,VWS V13.01,2013-11-10 06:08:00,
2013-11-10 01:11:00,43.9,31.3,29.26,SSW,202,0.0,0.0,61,0.00,,---,0.00,VWS V13.01,2013-11-10 06:11:00,
2013-11-10 01:12:00,43.9,31.3,29.26,SSW,202,0.0,0.0,61,0.00,,---,0.00,VWS V13.01,2013-11-10 06:12:00,
2013-11-10 01:13:00,43.9,31.3,29.26,SSW,202,0.0,0.0,61,0.00,,---,0.00,VWS V13.01,2013-11-10 06:13:00,
2013-11-10 01:16:00,43.9,31.3,29.23,SSE,158,0.0,0.0,61,0.00,,---,0.00,VWS V13.01,2013-11-10 06:16:00,
2013-11-10 01:17:00,43.9,31.3,29.23,SSE,158,0.0,0.0,61,0.00,,---,0.00,VWS V13.01,2013-11-10 06:17:00,
2013-11-10 01:18:00,43.9,31.3,29.23,SSE,158,0.0,0.0,61,0.00,,---,0.00,VWS V13.01,2013-11-10 06:18:00,
2013-11-10 01:20:00,43.9,31.3,29.23,SSE,158,0.0,0.0,61,0.00,,---,0.00,VWS V13.01,2013-11-10 06:20:00,
2013-11-10 01:21:00,43.9,31.3,29.23,SSE,158,0.0,0.0,61,0.00,,---,0.00,VWS V13.01,2013-11-10 06:21:00,
2013-11-10 01:22:00,43.9,31.3,29.23,SSE,158,0.0,0.0,61,0.00,,---,0.00,VWS V13.01,2013-11-10 06:22:00,
2013-11-10 01:23:00,43.9,31.3,29.23,SSE,158,0.0,0.0,61,0.00,,---,0.00,VWS V13.01,2013-11-10 06:23:00,
2013-11-10 01:26:00,43.9,31.3,29.23,SSE,158,0.0,0.0,61,0.00,,---,0.00,VWS V13.01,2013-11-10 06:26:00,
2013-11-10 01:28:00,43.9,31.3,29.23,SW,225,0.0,0.0,61,0.00,,---,0.00,VWS V13.01,2013-11-10 06:28:00,
2013-11-10 01:32:00,44.1,31.5,29.23,South,180,0.0,0.0,61,0.00,,---,0.00,VWS V13.01,2013-11-10 06:32:00,
2013-11-10 01:34:00,44.1,31.5,29.23,SSW,202,0.0,0.0,61,0.00,,---,0.00,VWS V13.01,2013-11-10 06:34:00,
2013-11-10 01:36:00,44.1,31.5,29.23,SSW,202,0.0,0.0,61,0.00,,---,0.00,VWS V13.01,2013-11-10 06:36:00,
2013-11-10 01:37:00,44.1,31.5,29.23,SSW,202,0.0,0.0,61,0.00,,---,0.00,VWS V13.01,2013-11-10 06:37:00,
2013-11-10 01:38:00,44.1,31.5,29.23,SSW,202,0.0,0.0,61,0.00,,---,0.00,VWS V13.01,2013-11-10 06:38:00,
2013-11-10 01:40:00,44.1,31.5,29.23,SSW,202,0.0,0.0,61,0.00,,---,0.00,VWS V13.01,2013-11-10 06:40:00,
2013-11-10 01:41:00,44.1,31.5,29.23,SSW,202,0.0,0.0,61,0.00,,---,0.00,VWS V13.01,2013-11-10 06:41:00,
2013-11-10 01:42:00,44.1,31.5,29.23,SSW,202,0.0,0.0,61,0.00,,---,0.00,VWS V13.01,2013-11-10 06:42:00,
2013-11-10 01:45:00,44.1,31.9,29.23,SSW,202,0.0,0.0,62,0.00,,---,0.00,VWS V13.01,2013-11-10 06:45:00,
2013-11-10 01:46:00,44.1,31.9,29.23,SSW,202,0.0,0.0,62,0.00,,---,0.00,VWS V13.01,2013-11-10 06:46:00,
2013-11-10 01:49:00,44.2,31.7,29.23,SSW,202,0.0,0.0,61,0.00,,---,0.00,VWS V13.01,2013-11-10 06:49:00,
2013-11-10 01:50:00,44.2,31.7,29.23,WSW,248,1.1,1.1,61,0.00,,---,0.00,VWS V13.01,2013-11-10 06:50:00,
2013-11-10 01:51:00,44.2,31.7,29.23,WSW,248,1.1,1.1,61,0.00,,---,0.00,VWS V13.01,2013-11-10 06:51:00,
2013-11-10 01:53:00,44.2,31.7,29.23,South,180,0.0,0.0,61,0.00,,---,0.00,VWS V13.01,2013-11-10 06:53:00,
2013-11-10 01:54:00,44.2,31.7,29.23,South,180,0.0,0.0,61,0.00,,---,0.00,VWS V13.01,2013-11-10 06:54:00,
2013-11-10 01:56:00,44.2,31.7,29.23,South,180,0.0,0.0,61,0.00,,---,0.00,VWS V13.01,2013-11-10 06:56:00,
2013-11-10 01:57:00,44.2,31.7,29.23,SSW,202,0.0,0.0,61,0.00,,---,0.00,VWS V13.01,2013-11-10 06:57:00,
2013-11-10 01:58:00,44.2,31.7,29.23,SSW,202,0.0,0.0,61,0.00,,---,0.00,VWS V13.01,2013-11-10 06:58:00,
2013-11-10 02:02:00,44.2,31.7,29.23,SSW,202,0.0,0.0,61,0.00,,---,0.00,VWS V13.01,2013-11-10 07:02:00,
2013-11-10 02:03:00,44.2,31.7,29.23,SSW,202,0.0,0.0,61,0.00,,---,0.00,VWS V13.01,2013-11-10 07:03:00,
2013-11-10 02:04:00,44.2,31.7,29.23,SSE,158,0.0,0.0,61,0.00,,---,0.00,VWS V13.01,2013-11-10 07:04:00,
2013-11-10 02:08:00,44.2,32.1,29.23,South,180,1.3,1.3,62,0.00,,---,0.00,VWS V13.01,2013-11-10 07:08:00,
2013-11-10 02:10:00,44.2,32.1,29.23,SW,225,0.0,1.6,62,0.00,,---,0.00,VWS V13.01,2013-11-10 07:10:00,
2013-11-10 02:11:00,44.2,32.1,29.23,SW,225,0.0,0.0,62,0.00,,---,0.00,VWS V13.01,2013-11-10 07:11:00,
2013-11-10 02:12:00,44.2,32.1,29.23,SW,225,0.0,0.0,62,0.00,,---,0.00,VWS V13.01,2013-11-10 07:12:00,
2013-11-10 02:13:00,44.2,32.1,29.23,SW,225,0.0,0.0,62,0.00,,---,0.00,VWS V13.01,2013-11-10 07:13:00,
2013-11-10 02:15:00,44.2,32.1,29.20,SW,225,0.0,0.0,62,0.00,,---,0.00,VWS V13.01,2013-11-10 07:15:00,
2013-11-10 02:16:00,44.2,32.1,29.20,SW,225,0.0,0.0,62,0.00,,---,0.00,VWS V13.01,2013-11-10 07:16:00,
2013-11-10 02:20:00,44.4,32.2,29.20,SSW,202,1.1,1.1,62,0.00,,---,0.00,VWS V13.01,2013-11-10 07:20:00,
2013-11-10 02:21:00,44.4,32.2,29.20,SSW,202,1.1,1.1,62,0.00,,---,0.00,VWS V13.01,2013-11-10 07:21:00,
2013-11-10 02:22:00,44.4,32.2,29.20,SSW,202,1.1,1.1,62,0.00,,---,0.00,VWS V13.01,2013-11-10 07:22:00,
2013-11-10 02:23:00,44.4,32.2,29.20,SSW,202,1.3,1.3,62,0.00,,---,0.00,VWS V13.01,2013-11-10 07:23:00,
2013-11-10 02:26:00,44.4,32.2,29.20,SSW,202,0.0,0.0,62,0.00,,---,0.00,VWS V13.01,2013-11-10 07:26:00,
2013-11-10 02:27:00,44.4,32.2,29.20,SSW,202,0.0,0.0,62,0.00,,---,0.00,VWS V13.01,2013-11-10 07:27:00,
2013-11-10 02:28:00,44.4,32.2,29.20,SSW,202,0.0,0.0,62,0.00,,---,0.00,VWS V13.01,2013-11-10 07:28:00,
2013-11-10 02:29:00,44.4,32.2,29.20,SSW,202,0.0,0.0,62,0.00,,---,0.00,VWS V13.01,2013-11-10 07:29:00,
2013-11-10 02:33:00,44.4,32.2,29.20,SSW,202,0.0,0.0,62,0.00,,---,0.00,VWS V13.01,2013-11-10 07:33:00,
2013-11-10 02:34:00,44.4,32.2,29.20,SSW,202,0.0,0.0,62,0.00,,---,0.00,VWS V13.01,2013-11-10 07:34:00,
2013-11-10 02:35:00,44.4,32.2,29.20,SSW,202,0.0,0.0,62,0.00,,---,0.00,VWS V13.01,2013-11-10 07:35:00,
2013-11-10 02:38:00,44.4,32.2,29.20,SSW,202,0.0,0.0,62,0.00,,---,0.00,VWS V13.01,2013-11-10 07:38:00,
2013-11-10 02:39:00,44.4,32.2,29.20,SSW,202,0.0,0.0,62,0.00,,---,0.00,VWS V13.01,2013-11-10 07:39:00,
2013-11-10 02:40:00,44.4,32.2,29.20,SSW,202,0.0,0.0,62,0.00,,---,0.00,VWS V13.01,2013-11-10 07:40:00,
2013-11-10 02:41:00,44.6,32.0,29.20,SSW,202,0.0,0.0,61,0.00,,---,0.00,VWS V13.01,2013-11-10 07:41:00,
2013-11-10 02:42:00,44.6,32.0,29.20,SSW,202,0.0,0.0,61,0.00,,---,0.00,VWS V13.01,2013-11-10 07:42:00,
2013-11-10 02:45:00,44.6,32.0,29.20,SSW,202,0.0,0.0,61,0.00,,---,0.00,VWS V13.01,2013-11-10 07:45:00,
2013-11-10 02:47:00,44.6,32.0,29.20,SSW,202,0.0,0.0,61,0.00,,---,0.00,VWS V13.01,2013-11-10 07:47:00,
2013-11-10 02:49:00,44.6,32.0,29.20,SSW,202,0.0,0.0,61,0.00,,---,0.00,VWS V13.01,2013-11-10 07:49:00,
2013-11-10 02:50:00,44.6,32.0,29.20,SSW,202,0.0,0.0,61,0.00,,---,0.00,VWS V13.01,2013-11-10 07:50:00,
2013-11-10 02:51:00,44.6,32.0,29.20,SSW,202,0.0,0.0,61,0.00,,---,0.00,VWS V13.01,2013-11-10 07:51:00,
2013-11-10 02:53:00,44.6,32.0,29.20,SSW,202,0.0,0.0,61,0.00,,---,0.00,VWS V13.01,2013-11-10 07:53:00,
2013-11-10 02:54:00,44.6,32.0,29.20,SSW,202,0.0,0.0,61,0.00,,---,0.00,VWS V13.01,2013-11-10 07:54:00,
2013-11-10 02:57:00,44.6,31.6,29.20,SSW,202,0.0,0.0,60,0.00,,---,0.00,VWS V13.01,2013-11-10 07:57:00,
2013-11-10 02:59:00,44.6,31.6,29.20,SSW,202,0.0,0.0,60,0.00,,---,0.00,VWS V13.01,2013-11-10 07:59:00,
2013-11-10 03:00:00,44.6,31.6,29.20,SSW,202,1.3,1.3,60,0.00,,---,0.00,VWS V13.01,2013-11-10 08:00:00,
2013-11-10 03:01:00,44.6,31.6,29.20,SSW,202,0.0,1.3,60,0.00,,---,0.00,VWS V13.01,2013-11-10 08:01:00,
2013-11-10 03:04:00,44.6,31.6,29.20,SSW,202,0.0,0.0,60,0.00,,---,0.00,VWS V13.01,2013-11-10 08:04:00,
2013-11-10 03:05:00,44.6,31.6,29.20,SSE,158,0.0,0.0,60,0.00,,---,0.00,VWS V13.01,2013-11-10 08:05:00,
2013-11-10 03:06:00,44.6,31.6,29.20,South,180,0.0,0.0,60,0.00,,---,0.00,VWS V13.01,2013-11-10 08:06:00,
2013-11-10 03:07:00,44.6,31.6,29.20,South,180,0.0,0.0,60,0.00,,---,0.00,VWS V13.01,2013-11-10 08:07:00,
2013-11-10 03:09:00,44.6,31.6,29.20,South,180,0.0,0.0,60,0.00,,---,0.00,VWS V13.01,2013-11-10 08:09:00,
2013-11-10 03:11:00,44.4,31.8,29.20,SSW,202,0.0,0.0,61,0.00,,---,0.00,VWS V13.01,2013-11-10 08:11:00,
2013-11-10 03:13:00,44.4,31.8,29.20,SSW,202,0.0,0.0,61,0.00,,---,0.00,VWS V13.01,2013-11-10 08:13:00,
2013-11-10 03:15:00,44.4,31.8,29.20,SSW,202,0.0,0.0,61,0.00,,---,0.00,VWS V13.01,2013-11-10 08:15:00,
2013-11-10 03:16:00,44.4,31.8,29.20,SSW,202,0.0,0.0,61,0.00,,---,0.00,VWS V13.01,2013-11-10 08:16:00,
2013-11-10 03:17:00,44.4,31.8,29.20,SSW,202,0.0,0.0,61,0.00,,---,0.00,VWS V13.01,2013-11-10 08:17:00,
2013-11-10 03:19:00,44.2,31.2,29.20,SSW,202,0.0,0.0,60,0.00,,---,0.00,VWS V13.01,2013-11-10 08:19:00,
2013-11-10 03:21:00,44.2,31.2,29.20,SSW,202,0.0,0.0,60,0.00,,---,0.00,VWS V13.01,2013-11-10 08:21:00,
2013-11-10 03:22:00,44.2,31.2,29.20,SSW,202,0.0,0.0,60,0.00,,---,0.00,VWS V13.01,2013-11-10 08:22:00,
2013-11-10 03:23:00,44.2,31.2,29.20,SSW,202,2.2,2.2,60,0.00,,---,0.00,VWS V13.01,2013-11-10 08:23:00,
2013-11-10 03:25:00,44.2,31.2,29.20,SSW,202,2.0,2.0,60,0.00,,---,0.00,VWS V13.01,2013-11-10 08:25:00,
2013-11-10 03:27:00,44.2,31.2,29.20,SSW,202,0.0,0.0,60,0.00,,---,0.00,VWS V13.01,2013-11-10 08:27:00,
2013-11-10 03:29:00,44.2,31.2,29.20,SSW,202,0.0,0.0,60,0.00,,---,0.00,VWS V13.01,2013-11-10 08:29:00,
2013-11-10 03:30:00,44.2,31.2,29.20,SSW,202,0.0,0.0,60,0.00,,---,0.00,VWS V13.01,2013-11-10 08:30:00,
2013-11-10 03:31:00,44.2,31.2,29.20,SSW,202,0.0,0.0,60,0.00,,---,0.00,VWS V13.01,2013-11-10 08:31:00,
2013-11-10 03:32:00,44.2,31.2,29.20,SSW,202,0.0,0.0,60,0.00,,---,0.00,VWS V13.01,2013-11-10 08:32:00,
2013-11-10 03:35:00,44.2,31.7,29.20,SSW,202,0.0,0.0,61,0.00,,---,0.00,VWS V13.01,2013-11-10 08:35:00,
2013-11-10 03:36:00,44.2,31.7,29.20,SSW,202,0.0,0.0,61,0.00,,---,0.00,VWS V13.01,2013-11-10 08:36:00,
2013-11-10 03:37:00,44.2,31.7,29.20,SSW,202,0.0,0.0,61,0.00,,---,0.00,VWS V13.01,2013-11-10 08:37:00,
2013-11-10 03:39:00,44.2,31.7,29.20,SSW,202,0.0,0.0,61,0.00,,---,0.00,VWS V13.01,2013-11-10 08:39:00,
2013-11-10 03:41:00,44.2,31.7,29.20,SSW,202,0.0,0.0,61,0.00,,---,0.00,VWS V13.01,2013-11-10 08:41:00,
2013-11-10 03:42:00,44.1,31.5,29.20,SSW,202,0.0,0.0,61,0.00,,---,0.00,VWS V13.01,2013-11-10 08:42:00,
2013-11-10 03:43:00,44.1,31.5,29.20,SSW,202,0.0,0.0,61,0.00,,---,0.00,VWS V13.01,2013-11-10 08:43:00,
2013-11-10 03:44:00,44.1,31.5,29.20,SSW,202,0.0,0.0,61,0.00,,---,0.00,VWS V13.01,2013-11-10 08:44:00,
2013-11-10 03:46:00,44.1,31.5,29.20,South,180,0.0,0.0,61,0.00,,---,0.00,VWS V13.01,2013-11-10 08:46:00,
2013-11-10 03:47:00,44.1,31.5,29.20,South,180,0.0,0.0,61,0.00,,---,0.00,VWS V13.01,2013-11-10 08:47:00,
2013-11-10 03:49:00,44.1,31.5,29.20,South,180,0.0,0.0,61,0.00,,---,0.00,VWS V13.01,2013-11-10 08:49:00,
2013-11-10 03:51:00,44.1,31.5,29.20,South,180,0.0,0.0,61,0.00,,---,0.00,VWS V13.01,2013-11-10 08:51:00,
2013-11-10 03:54:00,44.1,31.5,29.20,South,180,0.0,0.0,61,0.00,,---,0.00,VWS V13.01,2013-11-10 08:54:00,
2013-11-10 03:55:00,44.1,31.5,29.20,South,180,0.0,0.0,61,0.00,,---,0.00,VWS V13.01,2013-11-10 08:55:00,
2013-11-10 03:56:00,44.1,31.5,29.20,South,180,0.0,0.0,61,0.00,,---,0.00,VWS V13.01,2013-11-10 08:56:00,
2013-11-10 03:57:00,44.1,31.5,29.20,South,180,0.0,0.0,61,0.00,,---,0.00,VWS V13.01,2013-11-10 08:57:00,
2013-11-10 03:58:00,44.1,31.5,29.20,WNW,292,2.5,2.5,61,0.00,,---,0.00,VWS V13.01,2013-11-10 08:58:00,
2013-11-10 04:00:00,44.1,31.5,29.20,WNW,292,2.5,2.5,61,0.00,,---,0.00,VWS V13.01,2013-11-10 09:00:00,
2013-11-10 04:01:00,44.1,31.5,29.20,WNW,292,2.5,2.5,61,0.00,,---,0.00,VWS V13.01,2013-11-10 09:01:00,
2013-11-10 04:03:00,44.1,31.5,29.20,WNW,292,2.5,2.5,61,0.00,,---,0.00,VWS V13.01,2013-11-10 09:03:00,
2013-11-10 04:06:00,44.1,31.5,29.20,SSW,202,0.0,0.0,61,0.00,,---,0.00,VWS V13.01,2013-11-10 09:06:00,
2013-11-10 04:07:00,44.1,31.5,29.20,SSW,202,0.0,0.0,61,0.00,,---,0.00,VWS V13.01,2013-11-10 09:07:00,
2013-11-10 04:09:00,44.1,31.5,29.20,SW,225,0.0,0.0,61,0.00,,---,0.00,VWS V13.01,2013-11-10 09:09:00,
2013-11-10 04:10:00,44.1,31.5,29.20,South,180,0.9,0.9,61,0.00,,---,0.00,VWS V13.01,2013-11-10 09:10:00,
2013-11-10 04:12:00,43.9,31.3,29.20,WNW,292,0.0,0.0,61,0.00,,---,0.00,VWS V13.01,2013-11-10 09:12:00,
2013-11-10 04:13:00,43.9,31.3,29.20,WSW,248,2.0,2.0,61,0.00,,---,0.00,VWS V13.01,2013-11-10 09:13:00,
2013-11-10 04:16:00,43.9,31.3,29.20,WSW,248,2.0,2.0,61,0.00,,---,0.00,VWS V13.01,2013-11-10 09:16:00,
2013-11-10 04:17:00,43.9,31.3,29.20,SSW,202,0.0,2.0,61,0.00,,---,0.00,VWS V13.01,2013-11-10 09:17:00,
2013-11-10 04:19:00,43.9,31.3,29.20,WSW,248,0.0,0.0,61,0.00,,---,0.00,VWS V13.01,2013-11-10 09:19:00,
2013-11-10 04:21:00,43.9,31.3,29.20,WSW,248,0.0,0.0,61,0.00,,---,0.00,VWS V13.01,2013-11-10 09:21:00,
2013-11-10 04:23:00,43.9,31.3,29.20,WSW,248,0.0,0.0,61,0.00,,---,0.00,VWS V13.01,2013-11-10 09:23:00,
2013-11-10 04:25:00,43.9,31.3,29.20,WSW,248,0.0,0.0,61,0.00,,---,0.00,VWS V13.01,2013-11-10 09:25:00,
2013-11-10 04:27:00,43.7,31.1,29.20,WSW,248,0.0,0.0,61,0.00,,---,0.00,VWS V13.01,2013-11-10 09:27:00,
2013-11-10 04:29:00,43.7,31.1,29.20,WSW,248,0.0,0.0,61,0.00,,---,0.00,VWS V13.01,2013-11-10 09:29:00,
2013-11-10 04:31:00,43.7,31.1,29.20,SSW,202,1.1,1.1,61,0.00,,---,0.00,VWS V13.01,2013-11-10 09:31:00,
2013-11-10 04:33:00,43.7,31.1,29.20,SSW,202,0.0,0.0,61,0.00,,---,0.00,VWS V13.01,2013-11-10 09:33:00,
2013-11-10 04:34:00,43.7,31.1,29.20,SSE,158,0.0,0.0,61,0.00,,---,0.00,VWS V13.01,2013-11-10 09:34:00,
2013-11-10 04:35:00,43.7,31.1,29.20,SSW,202,0.0,0.0,61,0.00,,---,0.00,VWS V13.01,2013-11-10 09:35:00,
2013-11-10 04:37:00,43.7,31.1,29.20,SSE,158,0.0,0.0,61,0.00,,---,0.00,VWS V13.01,2013-11-10 09:37:00,
2013-11-10 04:39:00,43.7,31.1,29.20,SSW,202,0.0,0.0,61,0.00,,---,0.00,VWS V13.01,2013-11-10 09:39:00,
2013-11-10 04:40:00,43.7,31.1,29.20,SSW,202,0.0,0.0,61,0.00,,---,0.00,VWS V13.01,2013-11-10 09:40:00,
2013-11-10 04:44:00,43.3,30.8,29.17,SSW,202,0.0,0.0,61,0.00,,---,0.00,VWS V13.01,2013-11-10 09:44:00,
2013-11-10 04:45:00,43.3,30.8,29.17,SSW,202,0.0,0.0,61,0.00,,---,0.00,VWS V13.01,2013-11-10 09:45:00,
2013-11-10 04:46:00,43.3,30.8,29.17,SSW,202,0.0,0.0,61,0.00,,---,0.00,VWS V13.01,2013-11-10 09:46:00,
2013-11-10 04:48:00,43.3,30.8,29.17,SSW,202,0.0,0.0,61,0.00,,---,0.00,VWS V13.01,2013-11-10 09:48:00,
2013-11-10 04:49:00,43.3,30.8,29.17,SSW,202,0.0,0.0,61,0.00,,---,0.00,VWS V13.01,2013-11-10 09:49:00,
2013-11-10 04:52:00,43.3,30.8,29.17,SSE,158,0.0,0.0,61,0.00,,---,0.00,VWS V13.01,2013-11-10 09:52:00,
2013-11-10 04:53:00,43.3,30.8,29.17,SSE,158,0.0,0.0,61,0.00,,---,0.00,VWS V13.01,2013-11-10 09:53:00,
2013-11-10 04:55:00,43.3,30.8,29.17,South,180,0.0,0.0,61,0.00,,---,0.00,VWS V13.01,2013-11-10 09:55:00,
2013-11-10 04:59:00,43.0,30.9,29.17,South,180,0.0,0.0,62,0.00,,---,0.00,VWS V13.01,2013-11-10 09:59:00,
2013-11-10 05:00:00,43.0,30.9,29.17,South,180,0.0,0.0,62,0.00,,---,0.00,VWS V13.01,2013-11-10 10:00:00,
2013-11-10 05:01:00,43.0,30.9,29.17,South,180,0.0,0.0,62,0.00,,---,0.00,VWS V13.01,2013-11-10 10:01:00,
2013-11-10 05:05:00,42.6,30.9,29.17,SSE,158,0.0,0.0,63,0.00,,---,0.00,VWS V13.01,2013-11-10 10:05:00,
2013-11-10 05:06:00,42.6,30.9,29.17,SSE,158,0.0,0.0,63,0.00,,---,0.00,VWS V13.01,2013-11-10 10:06:00,
2013-11-10 05:08:00,42.6,30.9,29.17,SSW,202,0.0,0.0,63,0.00,,---,0.00,VWS V13.01,2013-11-10 10:08:00,
2013-11-10 05:09:00,42.6,30.9,29.17,SSW,202,0.0,0.0,63,0.00,,---,0.00,VWS V13.01,2013-11-10 10:09:00,
2013-11-10 05:10:00,42.6,30.9,29.17,SSW,202,0.0,0.0,63,0.00,,---,0.00,VWS V13.01,2013-11-10 10:10:00,
2013-11-10 05:12:00,42.6,30.9,29.17,SSW,202,0.0,0.0,63,0.00,,---,0.00,VWS V13.01,2013-11-10 10:12:00,
2013-11-10 05:13:00,42.6,30.9,29.17,SSW,202,0.0,0.0,63,0.00,,---,0.00,VWS V13.01,2013-11-10 10:13:00,
2013-11-10 05:14:00,42.6,30.9,29.17,SSW,202,0.0,0.0,63,0.00,,---,0.00,VWS V13.01,2013-11-10 10:14:00,
2013-11-10 05:18:00,42.6,30.9,29.17,SSW,202,0.0,0.0,63,0.00,,---,0.00,VWS V13.01,2013-11-10 10:18:00,
2013-11-10 05:19:00,42.6,30.9,29.17,SSW,202,0.0,0.0,63,0.00,,---,0.00,VWS V13.01,2013-11-10 10:19:00,
2013-11-10 05:20:00,42.6,31.3,29.17,SSE,158,0.0,0.0,64,0.00,,---,0.00,VWS V13.01,2013-11-10 10:20:00,
2013-11-10 05:24:00,42.6,31.3,29.17,SSW,202,0.0,0.0,64,0.00,,---,0.00,VWS V13.01,2013-11-10 10:24:00,
2013-11-10 05:26:00,42.6,31.3,29.17,SSW,202,0.0,0.0,64,0.00,,---,0.00,VWS V13.01,2013-11-10 10:26:00,
2013-11-10 05:27:00,42.6,31.3,29.17,SSW,202,0.0,0.0,64,0.00,,---,0.00,VWS V13.01,2013-11-10 10:27:00,
2013-11-10 05:29:00,42.6,31.3,29.17,South,180,2.5,2.5,64,0.00,,---,0.00,VWS V13.01,2013-11-10 10:29:00,
2013-11-10 05:30:00,42.6,31.3,29.17,South,180,2.5,2.5,64,0.00,,---,0.00,VWS V13.01,2013-11-10 10:30:00,
2013-11-10 05:32:00,42.6,31.3,29.17,South,180,2.5,2.5,64,0.00,,---,0.00,VWS V13.01,2013-11-10 10:32:00,
2013-11-10 05:34:00,42.4,30.8,29.17,South,180,2.5,2.5,63,0.00,,---,0.00,VWS V13.01,2013-11-10 10:34:00,
2013-11-10 05:37:00,42.3,30.6,29.17,SSW,202,0.0,0.0,63,0.00,,---,0.00,VWS V13.01,2013-11-10 10:37:00,
2013-11-10 05:38:00,42.3,30.6,29.17,SSW,202,0.0,0.0,63,0.00,,---,0.00,VWS V13.01,2013-11-10 10:38:00,
2013-11-10 05:39:00,42.3,30.6,29.17,SSW,202,0.0,0.0,63,0.00,,---,0.00,VWS V13.01,2013-11-10 10:39:00,
2013-11-10 05:40:00,42.3,30.6,29.17,WSW,248,1.1,1.1,63,0.00,,---,0.00,VWS V13.01,2013-11-10 10:40:00,
2013-11-10 05:42:00,42.3,30.6,29.17,WSW,248,1.1,1.1,63,0.00,,---,0.00,VWS V13.01,2013-11-10 10:42:00,
2013-11-10 05:44:00,42.3,30.6,29.17,SSW,202,0.0,0.0,63,0.00,,---,0.00,VWS V13.01,2013-11-10 10:44:00,
2013-11-10 05:45:00,42.3,30.6,29.17,SSW,202,0.0,0.0,63,0.00,,---,0.00,VWS V13.01,2013-11-10 10:45:00,
2013-11-10 05:48:00,42.3,30.6,29.17,SSW,202,0.0,0.0,63,0.00,,---,0.00,VWS V13.01,2013-11-10 10:48:00,
2013-11-10 05:50:00,42.3,30.6,29.17,SSW,202,0.0,0.0,63,0.00,,---,0.00,VWS V13.01,2013-11-10 10:50:00,
2013-11-10 05:53:00,42.3,30.6,29.17,SSW,202,2.0,2.0,63,0.00,,---,0.00,VWS V13.01,2013-11-10 10:53:00,
2013-11-10 05:56:00,42.3,30.6,29.17,SSW,202,0.0,0.9,63,0.00,,---,0.00,VWS V13.01,2013-11-10 10:56:00,
2013-11-10 05:57:00,42.3,31.0,29.17,South,180,0.0,0.0,64,0.00,,---,0.00,VWS V13.01,2013-11-10 10:57:00,
2013-11-10 05:58:00,42.3,31.0,29.17,South,180,0.0,0.0,64,0.00,,---,0.00,VWS V13.01,2013-11-10 10:58:00,
2013-11-10 06:00:00,42.3,31.0,29.17,SSW,202,0.9,1.1,64,0.00,,---,0.00,VWS V13.01,2013-11-10 11:00:00,
2013-11-10 06:03:00,42.3,31.0,29.17,SSW,202,0.9,0.9,64,0.00,,---,0.00,VWS V13.01,2013-11-10 11:03:00,
2013-11-10 06:04:00,42.3,31.0,29.17,SSW,202,0.9,0.9,64,0.00,,---,0.00,VWS V13.01,2013-11-10 11:04:00,
2013-11-10 06:08:00,42.3,31.0,29.17,WSW,248,0.0,0.0,64,0.00,,---,0.00,VWS V13.01,2013-11-10 11:08:00,
2013-11-10 06:09:00,42.3,31.0,29.17,WSW,248,0.0,0.0,64,0.00,,---,0.00,VWS V13.01,2013-11-10 11:09:00,
2013-11-10 06:10:00,42.3,31.0,29.17,WSW,248,0.0,0.0,64,0.00,,---,0.00,VWS V13.01,2013-11-10 11:10:00,
2013-11-10 06:11:00,42.3,31.0,29.17,South,180,0.0,0.0,64,0.00,,---,0.00,VWS V13.01,2013-11-10 11:11:00,
2013-11-10 06:12:00,42.3,31.4,29.17,South,180,0.0,0.0,65,0.00,,---,0.00,VWS V13.01,2013-11-10 11:12:00,
2013-11-10 06:15:00,42.3,31.4,29.17,South,180,0.0,0.0,65,0.00,,---,0.00,VWS V13.01,2013-11-10 11:15:00,
2013-11-10 06:17:00,42.3,31.4,29.17,SSW,202,0.0,0.0,65,0.00,,---,0.00,VWS V13.01,2013-11-10 11:17:00,
2013-11-10 06:21:00,42.3,31.4,29.17,SSW,202,0.0,0.0,65,0.00,,---,0.00,VWS V13.01,2013-11-10 11:21:00,
2013-11-10 06:22:00,42.3,31.4,29.17,SSE,158,0.0,0.0,65,0.00,,---,0.00,VWS V13.01,2013-11-10 11:22:00,
2013-11-10 06:24:00,42.3,31.4,29.17,SSW,202,0.0,0.0,65,0.00,,---,0.00,VWS V13.01,2013-11-10 11:24:00,
2013-11-10 06:26:00,42.3,31.4,29.17,SSW,202,0.0,0.0,65,0.00,,---,0.00,VWS V13.01,2013-11-10 11:26:00,
2013-11-10 06:27:00,42.3,31.0,29.17,SSW,202,0.0,0.0,64,0.00,,---,0.00,VWS V13.01,2013-11-10 11:27:00,
2013-11-10 06:28:00,42.3,31.0,29.17,SSW,202,0.0,0.0,64,0.00,,---,0.00,VWS V13.01,2013-11-10 11:28:00,
2013-11-10 06:29:00,42.3,31.0,29.17,SSW,202,0.0,0.0,64,0.00,,---,0.00,VWS V13.01,2013-11-10 11:29:00,
2013-11-10 06:32:00,42.3,31.0,29.17,SSW,202,0.0,0.0,64,0.00,,---,0.00,VWS V13.01,2013-11-10 11:32:00,
2013-11-10 06:33:00,42.3,31.0,29.17,SSW,202,0.0,0.0,64,0.00,,---,0.00,VWS V13.01,2013-11-10 11:33:00,
2013-11-10 06:35:00,42.3,31.0,29.17,SSW,202,0.0,0.0,64,0.00,,---,0.00,VWS V13.01,2013-11-10 11:35:00,
2013-11-10 06:36:00,42.3,31.0,29.17,SSW,202,0.0,0.0,64,0.00,,---,0.00,VWS V13.01,2013-11-10 11:36:00,
2013-11-10 06:37:00,42.3,31.0,29.17,SSW,202,0.0,0.0,64,0.00,,---,0.00,VWS V13.01,2013-11-10 11:37:00,
2013-11-10 06:39:00,42.3,31.0,29.17,SSW,202,0.0,0.0,64,0.00,,---,0.00,VWS V13.01,2013-11-10 11:39:00,
2013-11-10 06:40:00,42.3,31.0,29.17,SSW,202,0.0,0.0,64,0.00,,---,0.00,VWS V13.01,2013-11-10 11:40:00,
2013-11-10 06:42:00,42.3,31.0,29.17,SSW,202,0.0,0.0,64,0.00,,---,0.00,VWS V13.01,2013-11-10 11:42:00,
2013-11-10 06:44:00,42.3,31.0,29.17,WSW,248,0.0,2.0,64,0.00,,---,0.00,VWS V13.01,2013-11-10 11:44:00,
2013-11-10 06:45:00,42.3,31.0,29.17,WSW,248,0.0,0.0,64,0.00,,---,0.00,VWS V13.01,2013-11-10 11:45:00,
2013-11-10 06:47:00,42.3,31.0,29.17,SSW,202,0.0,0.0,64,0.00,,---,0.00,VWS V13.01,2013-11-10 11:47:00,
2013-11-10 06:51:00,42.3,31.4,29.17,SSW,202,0.0,2.7,65,0.00,,---,0.00,VWS V13.01,2013-11-10 11:51:00,
2013-11-10 06:52:00,42.3,31.4,29.17,SW,225,0.0,0.0,65,0.00,,---,0.00,VWS V13.01,2013-11-10 11:52:00,
2013-11-10 06:53:00,42.3,31.4,29.17,SW,225,0.0,0.0,65,0.00,,---,0.00,VWS V13.01,2013-11-10 11:53:00,
2013-11-10 06:56:00,42.3,31.4,29.17,SW,225,0.0,0.0,65,0.00,,---,0.00,VWS V13.01,2013-11-10 11:56:00,
2013-11-10 06:57:00,42.3,31.4,29.17,SW,225,0.0,0.0,65,0.00,,---,0.00,VWS V13.01,2013-11-10 11:57:00,
2013-11-10 06:59:00,42.3,31.4,29.17,SSW,202,0.0,0.0,65,0.00,,---,0.00,VWS V13.01,2013-11-10 11:59:00,
2013-11-10 07:00:00,42.3,31.4,29.17,SSW,202,0.0,0.0,65,0.00,,---,0.00,VWS V13.01,2013-11-10 12:00:00,
2013-11-10 07:01:00,42.3,31.4,29.17,SSW,202,0.0,0.0,65,0.00,,---,0.00,VWS V13.01,2013-11-10 12:01:00,
2013-11-10 07:02:00,42.3,31.4,29.17,SSW,202,0.0,0.0,65,0.00,,---,0.00,VWS V13.01,2013-11-10 12:02:00,
2013-11-10 07:03:00,42.3,31.4,29.17,SSW,202,0.0,0.0,65,0.00,,---,0.00,VWS V13.01,2013-11-10 12:03:00,
2013-11-10 07:05:00,42.4,31.1,29.17,SSW,202,0.0,0.0,64,0.00,,---,0.00,VWS V13.01,2013-11-10 12:05:00,
2013-11-10 07:08:00,42.4,31.1,29.17,SSW,202,0.0,0.0,64,0.00,,---,0.00,VWS V13.01,2013-11-10 12:08:00,
2013-11-10 07:09:00,42.4,31.1,29.17,SSW,202,0.0,0.0,64,0.00,,---,0.00,VWS V13.01,2013-11-10 12:09:00,
2013-11-10 07:10:00,42.4,31.1,29.17,SSW,202,0.0,0.0,64,0.00,,---,0.00,VWS V13.01,2013-11-10 12:10:00,
2013-11-10 07:13:00,42.4,31.1,29.17,SSW,202,0.0,0.0,64,0.00,,---,0.00,VWS V13.01,2013-11-10 12:13:00,
2013-11-10 07:15:00,42.4,31.1,29.17,SSW,202,0.0,0.0,64,0.00,,---,0.00,VWS V13.01,2013-11-10 12:15:00,
2013-11-10 07:16:00,42.4,31.1,29.17,SSW,202,0.0,0.0,64,0.00,,---,0.00,VWS V13.01,2013-11-10 12:16:00,
2013-11-10 07:19:00,42.4,31.1,29.17,WSW,248,0.0,0.0,64,0.00,,---,0.00,VWS V13.01,2013-11-10 12:19:00,
2013-11-10 07:21:00,42.8,31.5,29.17,SSE,158,0.0,0.0,64,0.00,,---,0.00,VWS V13.01,2013-11-10 12:21:00,
2013-11-10 07:23:00,42.8,31.5,29.17,SE,135,0.0,0.0,64,0.00,,---,0.00,VWS V13.01,2013-11-10 12:23:00,
2013-11-10 07:24:00,42.8,31.5,29.17,SE,135,0.0,0.0,64,0.00,,---,0.00,VWS V13.01,2013-11-10 12:24:00,
2013-11-10 07:26:00,42.8,31.5,29.17,SSE,158,0.0,0.0,64,0.00,,---,0.00,VWS V13.01,2013-11-10 12:26:00,
2013-11-10 07:27:00,42.8,31.5,29.17,SSE,158,0.0,0.0,64,0.00,,---,0.00,VWS V13.01,2013-11-10 12:27:00,
2013-11-10 07:29:00,42.8,31.5,29.17,SSE,158,0.0,0.0,64,0.00,,---,0.00,VWS V13.01,2013-11-10 12:29:00,
2013-11-10 07:32:00,42.8,31.5,29.17,SSW,202,0.0,0.0,64,0.00,,---,0.00,VWS V13.01,2013-11-10 12:32:00,
2013-11-10 07:33:00,42.8,31.5,29.17,SSW,202,0.0,0.0,64,0.00,,---,0.00,VWS V13.01,2013-11-10 12:33:00,
2013-11-10 07:34:00,42.8,31.5,29.17,SSW,202,0.0,0.0,64,0.00,,---,0.00,VWS V13.01,2013-11-10 12:34:00,
2013-11-10 07:37:00,42.8,31.5,29.17,South,180,0.0,0.0,64,0.00,,---,0.00,VWS V13.01,2013-11-10 12:37:00,
2013-11-10 07:40:00,42.8,31.5,29.17,South,180,0.0,0.0,64,0.00,,---,0.00,VWS V13.01,2013-11-10 12:40:00,
2013-11-10 07:41:00,42.8,31.5,29.17,South,180,0.0,0.0,64,0.00,,---,0.00,VWS V13.01,2013-11-10 12:41:00,
2013-11-10 07:42:00,42.8,31.5,29.17,South,180,0.0,0.0,64,0.00,,---,0.00,VWS V13.01,2013-11-10 12:42:00,
2013-11-10 07:43:00,42.8,31.5,29.17,South,180,0.0,0.0,64,0.00,,---,0.00,VWS V13.01,2013-11-10 12:43:00,
2013-11-10 07:46:00,42.8,31.5,29.17,SSE,158,0.0,0.0,64,0.00,,---,0.00,VWS V13.01,2013-11-10 12:46:00,
2013-11-10 07:47:00,42.8,31.5,29.17,SSE,158,0.0,0.0,64,0.00,,---,0.00,VWS V13.01,2013-11-10 12:47:00,
2013-11-10 07:48:00,42.8,31.5,29.17,SSE,158,0.0,0.0,64,0.00,,---,0.00,VWS V13.01,2013-11-10 12:48:00,
2013-11-10 07:49:00,42.8,31.5,29.17,SSW,202,0.0,0.0,64,0.00,,---,0.00,VWS V13.01,2013-11-10 12:49:00,
2013-11-10 07:53:00,42.8,31.5,29.17,SSW,202,0.0,0.0,64,0.00,,---,0.00,VWS V13.01,2013-11-10 12:53:00,
2013-11-10 07:54:00,42.8,31.5,29.17,SSW,202,0.0,0.0,64,0.00,,---,0.00,VWS V13.01,2013-11-10 12:54:00,
2013-11-10 07:55:00,42.8,31.5,29.17,SSW,202,0.0,0.0,64,0.00,,---,0.00,VWS V13.01,2013-11-10 12:55:00,
2013-11-10 07:57:00,42.8,31.5,29.17,SSW,202,0.0,0.0,64,0.00,,---,0.00,VWS V13.01,2013-11-10 12:57:00,
2013-11-10 07:59:00,42.8,31.5,29.17,SSW,202,0.0,0.0,64,0.00,,---,0.00,VWS V13.01,2013-11-10 12:59:00,
2013-11-10 08:03:00,42.8,31.5,29.17,SSW,202,0.0,0.0,64,0.00,,---,0.00,VWS V13.01,2013-11-10 13:03:00,
2013-11-10 08:04:00,42.8,31.5,29.17,SSW,202,0.0,0.0,64,0.00,,---,0.00,VWS V13.01,2013-11-10 13:04:00,
2013-11-10 08:05:00,42.8,31.5,29.17,SSW,202,0.0,0.0,64,0.00,,---,0.00,VWS V13.01,2013-11-10 13:05:00,
2013-11-10 08:06:00,42.8,31.5,29.17,SSW,202,0.0,0.0,64,0.00,,---,0.00,VWS V13.01,2013-11-10 13:06:00,
2013-11-10 08:10:00,42.8,31.5,29.17,SSW,202,0.0,0.0,64,0.00,,---,0.00,VWS V13.01,2013-11-10 13:10:00,
2013-11-10 08:13:00,43.7,32.0,29.17,SSW,202,0.0,0.0,63,0.00,,---,0.00,VWS V13.01,2013-11-10 13:13:00,
2013-11-10 08:14:00,43.7,32.0,29.17,SSW,202,0.0,0.0,63,0.00,,---,0.00,VWS V13.01,2013-11-10 13:14:00,
2013-11-10 08:15:00,43.7,32.0,29.17,SSW,202,0.0,0.0,63,0.00,,---,0.00,VWS V13.01,2013-11-10 13:15:00,
2013-11-10 08:16:00,43.7,32.0,29.17,South,180,0.0,0.0,63,0.00,,---,0.00,VWS V13.01,2013-11-10 13:16:00,
2013-11-10 08:21:00,43.9,31.7,29.17,SSW,202,0.9,0.9,62,0.00,,---,0.00,VWS V13.01,2013-11-10 13:21:00,
2013-11-10 08:22:00,43.9,31.7,29.17,SSW,202,1.3,1.3,62,0.00,,---,0.00,VWS V13.01,2013-11-10 13:22:00,
2013-11-10 08:23:00,43.9,31.7,29.17,SSW,202,1.3,1.3,62,0.00,,---,0.00,VWS V13.01,2013-11-10 13:23:00,
2013-11-10 08:26:00,43.9,31.7,29.17,SSW,202,0.0,0.0,62,0.00,,---,0.00,VWS V13.01,2013-11-10 13:26:00,
2013-11-10 08:28:00,43.9,31.7,29.14,SSW,202,0.0,0.0,62,0.00,,---,0.00,VWS V13.01,2013-11-10 13:28:00,
2013-11-10 08:29:00,43.9,31.7,29.14,SSW,202,0.0,0.0,62,0.00,,---,0.00,VWS V13.01,2013-11-10 13:29:00,
2013-11-10 08:31:00,43.9,31.7,29.14,SSW,202,0.0,0.0,62,0.00,,---,0.00,VWS V13.01,2013-11-10 13:31:00,
2013-11-10 08:34:00,43.9,31.7,29.14,SSE,158,0.0,0.0,62,0.00,,---,0.00,VWS V13.01,2013-11-10 13:34:00,
2013-11-10 08:35:00,43.9,31.7,29.14,SSE,158,0.0,0.0,62,0.00,,---,0.00,VWS V13.01,2013-11-10 13:35:00,
2013-11-10 08:37:00,43.9,31.7,29.14,SSE,158,0.0,0.0,62,0.00,,---,0.00,VWS V13.01,2013-11-10 13:37:00,
2013-11-10 08:39:00,43.9,31.7,29.14,SSE,158,0.0,0.0,62,0.00,,---,0.00,VWS V13.01,2013-11-10 13:39:00,
2013-11-10 08:41:00,43.9,31.7,29.14,SSE,158,0.0,0.0,62,0.00,,---,0.00,VWS V13.01,2013-11-10 13:41:00,
2013-11-10 08:43:00,45.3,31.9,29.14,SSE,158,0.0,0.0,59,0.00,,---,0.00,VWS V13.01,2013-11-10 13:43:00,
2013-11-10 08:45:00,45.3,31.9,29.14,SSE,158,0.0,0.0,59,0.00,,---,0.00,VWS V13.01,2013-11-10 13:45:00,
2013-11-10 08:46:00,45.5,32.0,29.14,SSE,158,0.0,0.0,59,0.00,,---,0.00,VWS V13.01,2013-11-10 13:46:00,
2013-11-10 08:48:00,45.7,32.2,29.14,SSE,158,0.0,0.0,59,0.00,,---,0.00,VWS V13.01,2013-11-10 13:48:00,
2013-11-10 08:49:00,45.9,32.4,29.14,SSE,158,0.0,0.0,59,0.00,,---,0.00,VWS V13.01,2013-11-10 13:49:00,
2013-11-10 08:50:00,45.9,32.4,29.14,SSE,158,0.0,0.0,59,0.00,,---,0.00,VWS V13.01,2013-11-10 13:50:00,
2013-11-10 08:51:00,46.0,32.5,29.14,SSE,158,0.0,0.0,59,0.00,,---,0.00,VWS V13.01,2013-11-10 13:51:00,
2013-11-10 08:54:00,46.2,32.7,29.14,SSE,158,0.0,0.0,59,0.00,,---,0.00,VWS V13.01,2013-11-10 13:54:00,
2013-11-10 08:55:00,46.2,32.7,29.14,SSE,158,0.0,0.0,59,0.00,,---,0.00,VWS V13.01,2013-11-10 13:55:00,
2013-11-10 08:58:00,46.6,32.6,29.14,SSE,158,0.0,0.0,58,0.00,,---,0.00,VWS V13.01,2013-11-10 13:58:00,
2013-11-10 08:59:00,46.8,32.8,29.14,SSE,158,0.0,0.0,58,0.00,,---,0.00,VWS V13.01,2013-11-10 13:59:00,
2013-11-10 09:00:00,46.8,32.8,29.14,SSE,158,0.0,0.0,58,0.00,,---,0.00,VWS V13.01,2013-11-10 14:00:00,
2013-11-10 09:02:00,46.8,32.8,29.14,SSE,158,0.0,0.0,58,0.00,,---,0.00,VWS V13.01,2013-11-10 14:02:00,
2013-11-10 09:04:00,46.8,32.8,29.14,SSE,158,0.0,0.0,58,0.00,,---,0.00,VWS V13.01,2013-11-10 14:04:00,
2013-11-10 09:05:00,46.8,32.8,29.14,SSE,158,0.0,0.0,58,0.00,,---,0.00,VWS V13.01,2013-11-10 14:05:00,
2013-11-10 09:06:00,47.3,32.8,29.14,SSE,158,0.0,0.0,57,0.00,,---,0.00,VWS V13.01,2013-11-10 14:06:00,
2013-11-10 09:07:00,47.3,32.8,29.14,SSE,158,0.0,0.0,57,0.00,,---,0.00,VWS V13.01,2013-11-10 14:07:00,
2013-11-10 09:08:00,47.3,32.8,29.14,SSE,158,0.0,0.0,57,0.00,,---,0.00,VWS V13.01,2013-11-10 14:08:00,
2013-11-10 09:10:00,47.5,33.0,29.14,SSE,158,0.0,0.0,57,0.00,,---,0.00,VWS V13.01,2013-11-10 14:10:00,
2013-11-10 09:11:00,47.5,33.0,29.14,SSE,158,0.0,0.0,57,0.00,,---,0.00,VWS V13.01,2013-11-10 14:11:00,
2013-11-10 09:13:00,47.7,33.2,29.14,SSE,158,0.0,0.0,57,0.00,,---,0.00,VWS V13.01,2013-11-10 14:13:00,
2013-11-10 09:14:00,47.7,33.2,29.14,SSW,202,2.0,2.0,57,0.00,,---,0.00,VWS V13.01,2013-11-10 14:14:00,
2013-11-10 09:15:00,47.7,33.2,29.14,SSW,202,2.0,2.0,57,0.00,,---,0.00,VWS V13.01,2013-11-10 14:15:00,
2013-11-10 09:17:00,47.7,33.2,29.14,SSW,202,2.0,2.0,57,0.00,,---,0.00,VWS V13.01,2013-11-10 14:17:00,
2013-11-10 09:18:00,47.7,33.2,29.14,SSW,202,2.0,2.0,57,0.00,,---,0.00,VWS V13.01,2013-11-10 14:18:00,
2013-11-10 09:19:00,47.7,33.2,29.14,SSW,202,2.0,2.0,57,0.00,,---,0.00,VWS V13.01,2013-11-10 14:19:00,
2013-11-10 09:20:00,47.7,33.2,29.14,SSW,202,2.0,2.0,57,0.00,,---,0.00,VWS V13.01,2013-11-10 14:20:00,
2013-11-10 09:23:00,47.7,33.2,29.14,SSW,202,2.0,2.0,57,0.00,,---,0.00,VWS V13.01,2013-11-10 14:23:00,
2013-11-10 09:24:00,47.7,33.2,29.14,SSW,202,2.0,2.0,57,0.00,,---,0.00,VWS V13.01,2013-11-10 14:24:00,
2013-11-10 09:25:00,47.7,33.2,29.14,SSW,202,2.0,2.0,57,0.00,,---,0.00,VWS V13.01,2013-11-10 14:25:00,
2013-11-10 09:26:00,47.7,33.2,29.14,SSW,202,2.0,2.0,57,0.00,,---,0.00,VWS V13.01,2013-11-10 14:26:00,
2013-11-10 09:27:00,47.7,33.2,29.14,SSW,202,2.0,2.0,57,0.00,,---,0.00,VWS V13.01,2013-11-10 14:27:00,
2013-11-10 09:29:00,48.7,33.3,29.14,SSW,202,2.0,2.0,55,0.00,,---,0.00,VWS V13.01,2013-11-10 14:29:00,
2013-11-10 09:31:00,48.9,33.5,29.14,SSW,202,2.0,2.0,55,0.00,,---,0.00,VWS V13.01,2013-11-10 14:31:00,
2013-11-10 09:32:00,48.9,33.5,29.14,SSW,202,2.0,2.0,55,0.00,,---,0.00,VWS V13.01,2013-11-10 14:32:00,
2013-11-10 09:33:00,49.1,33.7,29.14,SSW,202,2.0,2.0,55,0.00,,---,0.00,VWS V13.01,2013-11-10 14:33:00,
2013-11-10 09:34:00,49.1,33.7,29.14,SSW,202,2.0,2.0,55,0.00,,---,0.00,VWS V13.01,2013-11-10 14:34:00,
2013-11-10 09:37:00,49.1,33.7,29.14,SSW,202,2.0,2.0,55,0.00,,---,0.00,VWS V13.01,2013-11-10 14:37:00,
2013-11-10 09:38:00,49.1,33.7,29.14,SSW,202,2.0,2.0,55,0.00,,---,0.00,VWS V13.01,2013-11-10 14:38:00,
2013-11-10 09:39:00,49.3,33.8,29.14,SSW,202,2.0,2.0,55,0.00,,---,0.00,VWS V13.01,2013-11-10 14:39:00,
2013-11-10 09:40:00,49.5,34.0,29.14,SSW,202,2.0,2.0,55,0.00,,---,0.00,VWS V13.01,2013-11-10 14:40:00,
2013-11-10 09:41:00,49.5,34.0,29.14,SSW,202,2.0,2.0,55,0.00,,---,0.00,VWS V13.01,2013-11-10 14:41:00,
2013-11-10 09:44:00,49.6,34.2,29.14,SSW,202,2.0,2.0,55,0.00,,---,0.00,VWS V13.01,2013-11-10 14:44:00,
2013-11-10 09:45:00,49.6,34.2,29.14,SSW,202,2.0,2.0,55,0.00,,---,0.00,VWS V13.01,2013-11-10 14:45:00,
2013-11-10 09:46:00,49.8,34.3,29.14,SSW,202,2.0,2.0,55,0.00,,---,0.00,VWS V13.01,2013-11-10 14:46:00,
2013-11-10 09:47:00,49.8,34.3,29.14,SSW,202,2.0,2.0,55,0.00,,---,0.00,VWS V13.01,2013-11-10 14:47:00,
2013-11-10 09:48:00,49.8,34.3,29.14,SSW,202,2.0,2.0,55,0.00,,---,0.00,VWS V13.01,2013-11-10 14:48:00,
2013-11-10 09:50:00,50.0,34.0,29.14,SSW,202,2.0,2.0,54,0.00,,---,0.00,VWS V13.01,2013-11-10 14:50:00,
2013-11-10 09:51:00,50.2,34.2,29.14,SSW,202,2.0,2.0,54,0.00,,---,0.00,VWS V13.01,2013-11-10 14:51:00,
2013-11-10 09:54:00,50.2,34.2,29.14,SSW,202,2.0,2.0,54,0.00,,---,0.00,VWS V13.01,2013-11-10 14:54:00,
2013-11-10 09:56:00,50.4,34.4,29.14,SSW,202,2.0,2.0,54,0.00,,---,0.00,VWS V13.01,2013-11-10 14:56:00,
2013-11-10 09:58:00,50.4,34.4,29.14,SSW,202,0.9,2.0,54,0.00,,---,0.00,VWS V13.01,2013-11-10 14:58:00,
2013-11-10 10:02:00,50.4,34.4,29.12,South,180,0.0,0.0,54,0.00,,---,0.00,VWS V13.01,2013-11-10 15:02:00,
2013-11-10 10:03:00,50.4,34.4,29.12,South,180,0.0,0.0,54,0.00,,---,0.00,VWS V13.01,2013-11-10 15:03:00,
2013-11-10 10:04:00,50.4,34.4,29.12,South,180,0.0,0.0,54,0.00,,---,0.00,VWS V13.01,2013-11-10 15:04:00,
2013-11-10 10:07:00,50.4,34.4,29.12,SSW,202,0.0,0.0,54,0.00,,---,0.00,VWS V13.01,2013-11-10 15:07:00,
2013-11-10 10:08:00,50.4,34.4,29.12,SSW,202,0.0,0.0,54,0.00,,---,0.00,VWS V13.01,2013-11-10 15:08:00,
2013-11-10 10:09:00,50.4,34.4,29.12,SSW,202,0.0,0.0,54,0.00,,---,0.00,VWS V13.01,2013-11-10 15:09:00,
2013-11-10 10:10:00,50.4,34.4,29.12,SSW,202,0.0,0.0,54,0.00,,---,0.00,VWS V13.01,2013-11-10 15:10:00,
2013-11-10 10:11:00,50.4,34.4,29.12,SSW,202,0.0,0.0,54,0.00,,---,0.00,VWS V13.01,2013-11-10 15:11:00,
2013-11-10 10:14:00,50.4,34.4,29.12,SSW,202,0.0,0.0,54,0.00,,---,0.00,VWS V13.01,2013-11-10 15:14:00,
2013-11-10 10:15:00,51.6,34.6,29.12,SSW,202,0.0,0.0,52,0.00,,---,0.00,VWS V13.01,2013-11-10 15:15:00,
2013-11-10 10:16:00,51.6,34.6,29.12,SSW,202,0.0,0.0,52,0.00,,---,0.00,VWS V13.01,2013-11-10 15:16:00,
2013-11-10 10:17:00,51.6,34.6,29.12,SSW,202,0.0,0.0,52,0.00,,---,0.00,VWS V13.01,2013-11-10 15:17:00,
2013-11-10 10:20:00,52.0,34.9,29.12,SSW,202,0.0,0.0,52,0.00,,---,0.00,VWS V13.01,2013-11-10 15:20:00,
2013-11-10 10:21:00,52.0,34.9,29.12,SSW,202,0.0,0.0,52,0.00,,---,0.00,VWS V13.01,2013-11-10 15:21:00,
2013-11-10 10:22:00,52.2,35.1,29.12,SSW,202,0.0,0.0,52,0.00,,---,0.00,VWS V13.01,2013-11-10 15:22:00,
2013-11-10 10:26:00,52.3,35.2,29.12,SSW,202,0.0,0.0,52,0.00,,---,0.00,VWS V13.01,2013-11-10 15:26:00,
2013-11-10 10:28:00,52.3,35.7,29.12,WSW,248,3.4,3.4,53,0.00,,---,0.00,VWS V13.01,2013-11-10 15:28:00,
2013-11-10 10:31:00,52.3,35.7,29.12,WSW,248,3.4,3.4,53,0.00,,---,0.00,VWS V13.01,2013-11-10 15:31:00,
2013-11-10 10:32:00,52.3,35.7,29.12,WSW,248,3.4,3.4,53,0.00,,---,0.00,VWS V13.01,2013-11-10 15:32:00,
2013-11-10 10:33:00,52.3,35.7,29.12,WSW,248,3.4,3.4,53,0.00,,---,0.00,VWS V13.01,2013-11-10 15:33:00,
2013-11-10 10:34:00,52.3,35.7,29.12,WSW,248,3.4,3.4,53,0.00,,---,0.00,VWS V13.01,2013-11-10 15:34:00,
2013-11-10 10:35:00,52.3,35.7,29.12,WSW,248,3.4,3.4,53,0.00,,---,0.00,VWS V13.01,2013-11-10 15:35:00,
2013-11-10 10:38:00,53.1,35.4,29.12,WSW,248,3.4,3.4,51,0.00,,---,0.00,VWS V13.01,2013-11-10 15:38:00,
2013-11-10 10:39:00,53.1,35.4,29.12,WSW,248,3.4,3.4,51,0.00,,---,0.00,VWS V13.01,2013-11-10 15:39:00,
2013-11-10 10:40:00,53.1,35.4,29.12,WSW,248,3.4,3.4,51,0.00,,---,0.00,VWS V13.01,2013-11-10 15:40:00,
2013-11-10 10:41:00,53.1,35.4,29.12,WSW,248,3.4,3.4,51,0.00,,---,0.00,VWS V13.01,2013-11-10 15:41:00,
2013-11-10 10:43:00,53.4,35.8,29.12,WSW,248,3.4,3.4,51,0.00,,---,0.00,VWS V13.01,2013-11-10 15:43:00,
2013-11-10 10:44:00,53.4,35.8,29.12,WSW,248,3.4,3.4,51,0.00,,---,0.00,VWS V13.01,2013-11-10 15:44:00,
2013-11-10 10:45:00,53.6,35.4,29.12,WSW,248,3.4,3.4,50,0.00,,---,0.00,VWS V13.01,2013-11-10 15:45:00,
2013-11-10 10:46:00,53.8,35.6,29.12,WSW,248,3.4,3.4,50,0.00,,---,0.00,VWS V13.01,2013-11-10 15:46:00,
2013-11-10 10:48:00,53.8,35.6,29.12,WSW,248,3.4,3.4,50,0.00,,---,0.00,VWS V13.01,2013-11-10 15:48:00,
2013-11-10 10:50:00,54.0,35.8,29.12,WSW,248,3.4,3.4,50,0.00,,---,0.00,VWS V13.01,2013-11-10 15:50:00,
2013-11-10 10:52:00,54.3,36.1,29.12,WSW,248,3.4,3.4,50,0.00,,---,0.00,VWS V13.01,2013-11-10 15:52:00,
2013-11-10 10:53:00,54.3,36.1,29.12,WSW,248,3.4,3.4,50,0.00,,---,0.00,VWS V13.01,2013-11-10 15:53:00,
2013-11-10 10:54:00,54.5,36.3,29.12,WSW,248,3.4,3.4,50,0.00,,---,0.00,VWS V13.01,2013-11-10 15:54:00,
2013-11-10 10:56:00,54.7,36.4,29.12,WSW,248,3.4,3.4,50,0.00,,---,0.00,VWS V13.01,2013-11-10 15:56:00,
2013-11-10 10:58:00,54.9,36.1,29.12,WSW,248,3.4,3.4,49,0.00,,---,0.00,VWS V13.01,2013-11-10 15:58:00,
2013-11-10 11:00:00,55.2,36.4,29.09,WSW,248,3.4,3.4,49,0.00,,---,0.00,VWS V13.01,2013-11-10 16:00:00,
2013-11-10 11:01:00,55.4,36.6,29.09,WSW,248,3.4,3.4,49,0.00,,---,0.00,VWS V13.01,2013-11-10 16:01:00,
2013-11-10 11:04:00,55.6,36.7,29.09,WSW,248,3.4,3.4,49,0.00,,---,0.00,VWS V13.01,2013-11-10 16:04:00,
2013-11-10 11:06:00,56.1,37.2,29.09,WSW,248,3.4,3.4,49,0.00,,---,0.00,VWS V13.01,2013-11-10 16:06:00,
2013-11-10 11:08:00,56.5,37.6,29.09,WSW,248,3.4,3.4,49,0.00,,---,0.00,VWS V13.01,2013-11-10 16:08:00,
2013-11-10 11:12:00,56.7,37.7,29.09,WSW,248,3.4,3.4,49,0.00,,---,0.00,VWS V13.01,2013-11-10 16:12:00,
2013-11-10 11:14:00,56.8,37.9,29.09,WSW,248,3.4,3.4,49,0.00,,---,0.00,VWS V13.01,2013-11-10 16:14:00,
2013-11-10 11:17:00,57.4,37.9,29.09,WSW,248,3.4,3.4,48,0.00,,---,0.00,VWS V13.01,2013-11-10 16:17:00,
2013-11-10 11:18:00,57.4,37.9,29.09,WSW,248,3.4,3.4,48,0.00,,---,0.00,VWS V13.01,2013-11-10 16:18:00,
2013-11-10 11:20:00,57.6,37.5,29.09,WSW,248,3.4,3.4,47,0.00,,---,0.00,VWS V13.01,2013-11-10 16:20:00,
2013-11-10 11:22:00,57.6,37.5,29.09,WSW,248,3.4,3.4,47,0.00,,---,0.00,VWS V13.01,2013-11-10 16:22:00,
2013-11-10 11:24:00,57.6,37.5,29.09,WSW,248,3.4,3.4,47,0.00,,---,0.00,VWS V13.01,2013-11-10 16:24:00,
2013-11-10 11:28:00,57.4,36.8,29.09,WSW,248,3.4,3.4,46,0.00,,---,0.00,VWS V13.01,2013-11-10 16:28:00,
2013-11-10 11:30:00,56.8,36.8,29.09,WSW,248,3.4,3.4,47,0.00,,---,0.00,VWS V13.01,2013-11-10 16:30:00,
2013-11-10 11:33:00,56.8,36.8,29.09,WSW,248,3.4,3.4,47,0.00,,---,0.00,VWS V13.01,2013-11-10 16:33:00,
2013-11-10 11:37:00,57.2,36.6,29.09,WSW,248,3.4,3.4,46,0.00,,---,0.00,VWS V13.01,2013-11-10 16:37:00,
2013-11-10 11:38:00,57.4,36.8,29.09,WSW,248,3.4,3.4,46,0.00,,---,0.00,VWS V13.01,2013-11-10 16:38:00,
2013-11-10 11:39:00,57.4,36.8,29.09,WSW,248,3.4,3.4,46,0.00,,---,0.00,VWS V13.01,2013-11-10 16:39:00,
2013-11-10 11:40:00,57.4,36.8,29.09,WSW,248,3.4,3.4,46,0.00,,---,0.00,VWS V13.01,2013-11-10 16:40:00,
2013-11-10 11:41:00,57.4,36.8,29.09,WSW,248,3.4,3.4,46,0.00,,---,0.00,VWS V13.01,2013-11-10 16:41:00,
2013-11-10 11:44:00,57.9,37.3,29.09,WSW,248,3.4,3.4,46,0.00,,---,0.00,VWS V13.01,2013-11-10 16:44:00,
2013-11-10 11:46:00,57.9,37.3,29.09,WSW,248,3.4,3.4,46,0.00,,---,0.00,VWS V13.01,2013-11-10 16:46:00,
2013-11-10 11:47:00,57.9,37.3,29.09,WSW,248,3.4,3.4,46,0.00,,---,0.00,VWS V13.01,2013-11-10 16:47:00,
2013-11-10 11:49:00,57.9,36.7,29.09,WSW,248,3.4,3.4,45,0.00,,---,0.00,VWS V13.01,2013-11-10 16:49:00,
2013-11-10 11:50:00,57.9,36.7,29.09,WSW,248,3.4,3.4,45,0.00,,---,0.00,VWS V13.01,2013-11-10 16:50:00,
2013-11-10 11:51:00,57.9,36.7,29.09,WSW,248,3.4,3.4,45,0.00,,---,0.00,VWS V13.01,2013-11-10 16:51:00,
2013-11-10 11:52:00,58.1,36.9,29.09,WSW,248,3.4,3.4,45,0.00,,---,0.00,VWS V13.01,2013-11-10 16:52:00,
2013-11-10 11:54:00,58.1,36.9,29.09,WSW,248,3.4,3.4,45,0.00,,---,0.00,VWS V13.01,2013-11-10 16:54:00,
2013-11-10 11:55:00,58.1,36.9,29.09,WSW,248,3.4,3.4,45,0.00,,---,0.00,VWS V13.01,2013-11-10 16:55:00,
2013-11-10 11:57:00,57.7,36.6,29.09,WSW,248,3.4,3.4,45,0.00,,---,0.00,VWS V13.01,2013-11-10 16:57:00,
2013-11-10 11:59:00,57.6,36.4,29.09,WSW,248,3.4,3.4,45,0.00,,---,0.00,VWS V13.01,2013-11-10 16:59:00,
2013-11-10 12:01:00,57.6,36.4,29.09,WSW,248,3.4,3.4,45,0.00,,---,0.00,VWS V13.01,2013-11-10 17:01:00,
2013-11-10 12:02:00,57.6,36.4,29.09,WSW,248,3.4,3.4,45,0.00,,---,0.00,VWS V13.01,2013-11-10 17:02:00,
2013-11-10 12:03:00,57.6,36.4,29.09,WSW,248,3.4,3.4,45,0.00,,---,0.00,VWS V13.01,2013-11-10 17:03:00,
2013-11-10 12:05:00,57.6,35.8,29.09,WSW,248,3.4,3.4,44,0.00,,---,0.00,VWS V13.01,2013-11-10 17:05:00,
2013-11-10 12:07:00,57.4,36.2,29.09,WSW,248,3.4,3.4,45,0.00,,---,0.00,VWS V13.01,2013-11-10 17:07:00,
2013-11-10 12:09:00,57.2,35.5,29.09,WSW,248,3.4,3.4,44,0.00,,---,0.00,VWS V13.01,2013-11-10 17:09:00,
2013-11-10 12:10:00,57.2,35.5,29.09,WSW,248,3.4,3.4,44,0.00,,---,0.00,VWS V13.01,2013-11-10 17:10:00,
2013-11-10 12:11:00,57.2,35.5,29.09,WSW,248,3.4,3.4,44,0.00,,---,0.00,VWS V13.01,2013-11-10 17:11:00,
2013-11-10 12:14:00,56.8,35.2,29.09,WSW,248,3.4,3.4,44,0.00,,---,0.00,VWS V13.01,2013-11-10 17:14:00,
2013-11-10 12:15:00,56.8,35.2,29.09,WSW,248,3.4,3.4,44,0.00,,---,0.00,VWS V13.01,2013-11-10 17:15:00,
2013-11-10 12:16:00,56.7,35.0,29.09,WSW,248,3.4,3.4,44,0.00,,---,0.00,VWS V13.01,2013-11-10 17:16:00,
2013-11-10 12:18:00,56.7,35.0,29.09,WSW,248,3.4,3.4,44,0.00,,---,0.00,VWS V13.01,2013-11-10 17:18:00,
2013-11-10 12:21:00,56.5,34.8,29.09,WSW,248,3.4,3.4,44,0.00,,---,0.00,VWS V13.01,2013-11-10 17:21:00,
2013-11-10 12:22:00,56.3,35.2,29.09,WSW,248,3.4,3.4,45,0.00,,---,0.00,VWS V13.01,2013-11-10 17:22:00,
2013-11-10 12:23:00,56.3,35.2,29.09,WSW,248,3.4,3.4,45,0.00,,---,0.00,VWS V13.01,2013-11-10 17:23:00,
2013-11-10 12:26:00,55.9,34.4,29.09,WSW,248,3.4,3.4,44,0.00,,---,0.00,VWS V13.01,2013-11-10 17:26:00,
2013-11-10 12:27:00,55.9,34.4,29.09,WSW,248,3.4,3.4,44,0.00,,---,0.00,VWS V13.01,2013-11-10 17:27:00,
2013-11-10 12:28:00,55.9,34.9,29.09,WSW,248,3.4,3.4,45,0.00,,---,0.00,VWS V13.01,2013-11-10 17:28:00,
2013-11-10 12:29:00,55.9,34.9,29.09,WSW,248,3.4,3.4,45,0.00,,---,0.00,VWS V13.01,2013-11-10 17:29:00,
2013-11-10 12:32:00,55.8,34.8,29.09,WSW,248,3.4,3.4,45,0.00,,---,0.00,VWS V13.01,2013-11-10 17:32:00,
2013-11-10 12:33:00,55.8,34.8,29.09,WSW,248,3.4,3.4,45,0.00,,---,0.00,VWS V13.01,2013-11-10 17:33:00,
2013-11-10 12:34:00,55.6,34.0,29.09,WSW,248,3.4,3.4,44,0.00,,---,0.00,VWS V13.01,2013-11-10 17:34:00,
2013-11-10 12:35:00,55.4,33.9,29.09,WSW,248,3.4,3.4,44,0.00,,---,0.00,VWS V13.01,2013-11-10 17:35:00,
2013-11-10 12:38:00,55.4,33.9,29.09,West,270,1.6,1.6,44,0.00,,---,0.00,VWS V13.01,2013-11-10 17:38:00,
2013-11-10 12:39:00,55.2,34.3,29.09,West,270,1.6,1.6,45,0.00,,---,0.00,VWS V13.01,2013-11-10 17:39:00,
2013-11-10 12:40:00,55.2,34.3,29.09,West,270,1.6,1.6,45,0.00,,---,0.00,VWS V13.01,2013-11-10 17:40:00,
2013-11-10 12:41:00,55.2,34.3,29.09,West,270,1.6,1.6,45,0.00,,---,0.00,VWS V13.01,2013-11-10 17:41:00,
2013-11-10 12:42:00,55.2,34.3,29.09,West,270,1.6,1.6,45,0.00,,---,0.00,VWS V13.01,2013-11-10 17:42:00,
2013-11-10 12:45:00,55.2,34.3,29.09,West,270,1.6,1.6,45,0.00,,---,0.00,VWS V13.01,2013-11-10 17:45:00,
2013-11-10 12:47:00,54.5,34.2,29.09,West,270,1.6,1.6,46,0.00,,---,0.00,VWS V13.01,2013-11-10 17:47:00,
2013-11-10 12:48:00,54.5,34.2,29.09,West,270,1.6,1.6,46,0.00,,---,0.00,VWS V13.01,2013-11-10 17:48:00,
2013-11-10 12:50:00,54.5,34.2,29.09,West,270,1.6,1.6,46,0.00,,---,0.00,VWS V13.01,2013-11-10 17:50:00,
2013-11-10 12:51:00,54.5,34.2,29.09,West,270,1.6,1.6,46,0.00,,---,0.00,VWS V13.01,2013-11-10 17:51:00,
2013-11-10 12:52:00,54.5,34.2,29.09,West,270,1.6,1.6,46,0.00,,---,0.00,VWS V13.01,2013-11-10 17:52:00,
2013-11-10 12:53:00,54.3,34.0,29.09,West,270,1.6,1.6,46,0.00,,---,0.00,VWS V13.01,2013-11-10 17:53:00,
2013-11-10 12:54:00,54.3,34.0,29.09,West,270,1.6,1.6,46,0.00,,---,0.00,VWS V13.01,2013-11-10 17:54:00,
2013-11-10 12:59:00,54.1,33.8,29.09,West,270,1.6,1.6,46,0.00,,---,0.00,VWS V13.01,2013-11-10 17:59:00,
2013-11-10 13:01:00,54.1,34.4,29.09,West,270,1.6,1.6,47,0.00,,---,0.00,VWS V13.01,2013-11-10 18:01:00,
2013-11-10 13:02:00,54.0,34.2,29.09,West,270,1.6,1.6,47,0.00,,---,0.00,VWS V13.01,2013-11-10 18:02:00,
2013-11-10 13:03:00,54.0,34.2,29.09,West,270,1.6,1.6,47,0.00,,---,0.00,VWS V13.01,2013-11-10 18:03:00,
2013-11-10 13:07:00,53.6,33.9,29.09,West,270,1.6,1.6,47,0.00,,---,0.00,VWS V13.01,2013-11-10 18:07:00,
2013-11-10 13:08:00,53.4,33.7,29.09,West,270,1.6,1.6,47,0.00,,---,0.00,VWS V13.01,2013-11-10 18:08:00,
2013-11-10 13:09:00,53.4,33.7,29.09,West,270,2.7,2.7,47,0.00,,---,0.00,VWS V13.01,2013-11-10 18:09:00,
2013-11-10 13:13:00,53.4,33.7,29.09,NNE,22,3.8,3.8,47,0.00,,---,0.00,VWS V13.01,2013-11-10 18:13:00,
2013-11-10 13:14:00,53.4,33.7,29.09,NNE,22,3.8,3.8,47,0.00,,---,0.00,VWS V13.01,2013-11-10 18:14:00,
2013-11-10 13:16:00,53.4,33.7,29.12,SSW,202,2.0,2.7,47,0.00,,---,0.00,VWS V13.01,2013-11-10 18:16:00,
2013-11-10 13:18:00,50.2,32.8,29.12,SSW,202,2.0,2.0,51,0.00,,---,0.00,VWS V13.01,2013-11-10 18:18:00,
2013-11-10 13:19:00,50.2,32.8,29.12,SSW,202,2.0,2.0,51,0.00,,---,0.00,VWS V13.01,2013-11-10 18:19:00,
2013-11-10 13:20:00,50.2,32.8,29.12,SSW,202,2.0,2.0,51,0.00,,---,0.00,VWS V13.01,2013-11-10 18:20:00,
2013-11-10 13:22:00,50.2,32.8,29.12,SSW,202,2.0,2.0,51,0.00,,---,0.00,VWS V13.01,2013-11-10 18:22:00,
2013-11-10 13:25:00,50.2,32.8,29.12,SSW,202,2.0,2.0,51,0.00,,---,0.00,VWS V13.01,2013-11-10 18:25:00,
2013-11-10 13:27:00,50.2,32.8,29.12,SSW,202,2.0,2.0,51,0.00,,---,0.00,VWS V13.01,2013-11-10 18:27:00,
2013-11-10 13:29:00,50.2,32.8,29.12,SSW,202,2.0,2.0,51,0.00,,---,0.00,VWS V13.01,2013-11-10 18:29:00,
2013-11-10 13:30:00,50.2,32.8,29.12,SSW,202,2.0,2.0,51,0.00,,---,0.00,VWS V13.01,2013-11-10 18:30:00,
2013-11-10 13:34:00,48.0,33.5,29.12,SSW,202,2.0,2.0,57,0.00,,---,0.00,VWS V13.01,2013-11-10 18:34:00,
2013-11-10 13:35:00,47.8,33.4,29.12,SSW,202,2.0,2.0,57,0.00,,---,0.00,VWS V13.01,2013-11-10 18:35:00,
2013-11-10 13:36:00,47.8,33.4,29.12,SSW,202,2.0,2.0,57,0.00,,---,0.00,VWS V13.01,2013-11-10 18:36:00,
2013-11-10 13:39:00,47.5,33.0,29.12,SSW,202,2.0,2.0,57,0.00,,---,0.00,VWS V13.01,2013-11-10 18:39:00,
2013-11-10 13:40:00,47.3,32.8,29.12,SSW,202,2.0,2.0,57,0.00,,---,0.00,VWS V13.01,2013-11-10 18:40:00,
2013-11-10 13:41:00,47.3,32.8,29.12,SSW,202,2.0,2.0,57,0.00,,---,0.00,VWS V13.01,2013-11-10 18:41:00,
2013-11-10 13:42:00,47.1,32.7,29.12,SSW,202,2.0,2.0,57,0.00,,---,0.00,VWS V13.01,2013-11-10 18:42:00,
2013-11-10 13:43:00,47.1,32.7,29.12,SSW,202,2.0,2.0,57,0.00,,---,0.00,VWS V13.01,2013-11-10 18:43:00,
2013-11-10 13:45:00,47.1,33.1,29.12,SSW,202,2.0,2.0,58,0.00,,---,0.00,VWS V13.01,2013-11-10 18:45:00,
2013-11-10 13:46:00,46.9,33.0,29.12,SSW,202,2.0,2.0,58,0.00,,---,0.00,VWS V13.01,2013-11-10 18:46:00,
2013-11-10 13:49:00,46.6,33.0,29.12,SSW,202,2.0,2.0,59,0.00,,---,0.00,VWS V13.01,2013-11-10 18:49:00,
2013-11-10 13:50:00,46.6,33.0,29.12,SSW,202,2.0,2.0,59,0.00,,---,0.00,VWS V13.01,2013-11-10 18:50:00,
2013-11-10 13:51:00,46.6,33.0,29.12,SSW,202,2.0,2.0,59,0.00,,---,0.00,VWS V13.01,2013-11-10 18:51:00,
2013-11-10 13:52:00,46.2,32.7,29.12,SSW,202,2.0,2.0,59,0.00,,---,0.00,VWS V13.01,2013-11-10 18:52:00,
2013-11-10 13:54:00,46.2,32.7,29.12,SSW,202,2.0,2.0,59,0.00,,---,0.00,VWS V13.01,2013-11-10 18:54:00,
2013-11-10 13:56:00,45.9,32.4,29.12,SSW,202,2.0,2.0,59,0.00,,---,0.00,VWS V13.01,2013-11-10 18:56:00,
2013-11-10 13:58:00,45.7,32.2,29.12,SSW,202,2.0,2.0,59,0.00,,---,0.00,VWS V13.01,2013-11-10 18:58:00,
2013-11-10 14:01:00,45.5,32.4,29.12,SSW,202,2.0,2.0,60,0.00,,---,0.00,VWS V13.01,2013-11-10 19:01:00,
2013-11-10 14:02:00,45.3,32.3,29.12,SSW,202,2.0,2.0,60,0.00,,---,0.00,VWS V13.01,2013-11-10 19:02:00,
2013-11-10 14:04:00,45.3,32.3,29.12,SSW,202,2.0,2.0,60,0.00,,---,0.00,VWS V13.01,2013-11-10 19:04:00,
2013-11-10 14:06:00,45.3,32.3,29.12,SSW,202,3.1,3.1,60,0.00,,---,0.00,VWS V13.01,2013-11-10 19:06:00,
2013-11-10 14:08:00,45.3,32.3,29.12,SSW,202,3.1,3.1,60,0.00,,---,0.00,VWS V13.01,2013-11-10 19:08:00,
2013-11-10 14:09:00,45.3,32.3,29.12,SSW,202,3.1,3.1,60,0.00,,---,0.00,VWS V13.01,2013-11-10 19:09:00,
2013-11-10 14:11:00,45.3,32.3,29.12,SSW,202,3.1,3.1,60,0.00,,---,0.00,VWS V13.01,2013-11-10 19:11:00,
2013-11-10 14:12:00,45.3,32.3,29.12,SSW,202,3.1,3.1,60,0.00,,---,0.00,VWS V13.01,2013-11-10 19:12:00,
2013-11-10 14:13:00,45.3,32.3,29.12,SSW,202,3.1,3.1,60,0.00,,---,0.00,VWS V13.01,2013-11-10 19:13:00,
2013-11-10 14:17:00,45.3,32.3,29.12,SSW,202,3.1,3.1,60,0.00,,---,0.00,VWS V13.01,2013-11-10 19:17:00,
2013-11-10 14:18:00,45.3,32.3,29.12,SSW,202,3.1,3.1,60,0.00,,---,0.00,VWS V13.01,2013-11-10 19:18:00,
2013-11-10 14:20:00,45.3,32.3,29.12,SSW,202,3.1,3.1,60,0.00,,---,0.00,VWS V13.01,2013-11-10 19:20:00,
2013-11-10 14:22:00,45.1,32.1,29.12,SSW,202,3.1,3.1,60,0.00,,---,0.00,VWS V13.01,2013-11-10 19:22:00,
2013-11-10 14:23:00,45.1,31.7,29.12,SSW,202,3.1,3.1,59,0.00,,---,0.00,VWS V13.01,2013-11-10 19:23:00,
2013-11-10 14:24:00,45.1,31.7,29.12,SSW,202,3.1,3.1,59,0.00,,---,0.00,VWS V13.01,2013-11-10 19:24:00,
2013-11-10 14:28:00,45.1,31.7,29.12,SSW,202,3.1,3.1,59,0.00,,---,0.00,VWS V13.01,2013-11-10 19:28:00,
2013-11-10 14:30:00,45.1,32.1,29.12,SSW,202,3.1,3.1,60,0.00,,---,0.00,VWS V13.01,2013-11-10 19:30:00,
2013-11-10 14:33:00,45.1,31.7,29.14,SSW,202,3.1,3.1,59,0.00,,---,0.00,VWS V13.01,2013-11-10 19:33:00,
2013-11-10 14:34:00,45.1,31.7,29.14,SSW,202,3.1,3.1,59,0.00,,---,0.00,VWS V13.01,2013-11-10 19:34:00,
2013-11-10 14:36:00,45.1,31.7,29.14,SSW,202,3.1,3.1,59,0.00,,---,0.00,VWS V13.01,2013-11-10 19:36:00,
2013-11-10 14:39:00,45.1,31.3,29.14,SSW,202,3.1,3.1,58,0.00,,---,0.00,VWS V13.01,2013-11-10 19:39:00,
2013-11-10 14:40:00,45.1,31.3,29.14,SSW,202,3.1,3.1,58,0.00,,---,0.00,VWS V13.01,2013-11-10 19:40:00,
2013-11-10 14:41:00,45.1,31.3,29.14,SSW,202,3.1,3.1,58,0.00,,---,0.00,VWS V13.01,2013-11-10 19:41:00,
2013-11-10 14:42:00,45.1,31.7,29.14,SSW,202,3.1,3.1,59,0.00,,---,0.00,VWS V13.01,2013-11-10 19:42:00,
2013-11-10 14:46:00,45.1,31.3,29.14,SSW,202,3.1,3.1,58,0.00,,---,0.00,VWS V13.01,2013-11-10 19:46:00,
2013-11-10 14:47:00,45.3,31.9,29.14,SSW,202,3.1,3.1,59,0.00,,---,0.00,VWS V13.01,2013-11-10 19:47:00,
2013-11-10 14:48:00,45.3,31.9,29.14,SSW,202,3.1,3.1,59,0.00,,---,0.00,VWS V13.01,2013-11-10 19:48:00,
2013-11-10 14:50:00,45.3,31.9,29.14,SSW,202,3.1,3.1,59,0.00,,---,0.00,VWS V13.01,2013-11-10 19:50:00,
2013-11-10 14:51:00,45.3,31.9,29.14,SSW,202,3.1,3.1,59,0.00,,---,0.00,VWS V13.01,2013-11-10 19:51:00,
2013-11-10 14:54:00,45.5,31.6,29.14,SSW,202,3.1,3.1,58,0.00,,---,0.00,VWS V13.01,2013-11-10 19:54:00,
2013-11-10 14:55:00,45.5,31.6,29.14,SSW,202,3.1,3.1,58,0.00,,---,0.00,VWS V13.01,2013-11-10 19:55:00,
2013-11-10 14:56:00,45.5,32.0,29.14,SSW,202,3.1,3.1,59,0.00,,---,0.00,VWS V13.01,2013-11-10 19:56:00,
2013-11-10 14:58:00,45.5,31.6,29.14,SSW,202,3.1,3.1,58,0.00,,---,0.00,VWS V13.01,2013-11-10 19:58:00,
2013-11-10 15:00:00,45.7,31.8,29.14,SSW,202,3.1,3.1,58,0.00,,---,0.00,VWS V13.01,2013-11-10 20:00:00,
2013-11-10 15:02:00,45.7,31.8,29.14,SSW,202,3.1,3.1,58,0.00,,---,0.00,VWS V13.01,2013-11-10 20:02:00,
2013-11-10 15:04:00,45.9,31.9,29.14,SSW,202,3.1,3.1,58,0.00,,---,0.00,VWS V13.01,2013-11-10 20:04:00,
2013-11-10 15:05:00,45.9,31.9,29.14,SSW,202,3.1,3.1,58,0.00,,---,0.00,VWS V13.01,2013-11-10 20:05:00,
2013-11-10 15:06:00,45.9,31.9,29.14,SSW,202,3.1,3.1,58,0.00,,---,0.00,VWS V13.01,2013-11-10 20:06:00,
2013-11-10 15:10:00,45.9,31.5,29.14,SSW,202,3.1,3.1,57,0.00,,---,0.00,VWS V13.01,2013-11-10 20:10:00,
2013-11-10 15:12:00,45.9,31.9,29.14,SSW,202,3.1,3.1,58,0.00,,---,0.00,VWS V13.01,2013-11-10 20:12:00,
2013-11-10 15:13:00,45.9,31.9,29.14,SSW,202,3.1,3.1,58,0.00,,---,0.00,VWS V13.01,2013-11-10 20:13:00,
2013-11-10 15:15:00,45.9,31.9,29.14,SSW,202,3.1,3.1,58,0.00,,---,0.00,VWS V13.01,2013-11-10 20:15:00,
2013-11-10 15:16:00,45.9,31.9,29.14,SSW,202,3.1,3.1,58,0.00,,---,0.00,VWS V13.01,2013-11-10 20:16:00,
2013-11-10 15:18:00,45.9,31.9,29.14,SSW,202,3.1,3.1,58,0.00,,---,0.00,VWS V13.01,2013-11-10 20:18:00,
2013-11-10 15:20:00,45.9,31.9,29.14,SSW,202,3.1,3.1,58,0.00,,---,0.00,VWS V13.01,2013-11-10 20:20:00,
2013-11-10 15:22:00,45.9,31.9,29.14,SSW,202,3.1,3.1,58,0.00,,---,0.00,VWS V13.01,2013-11-10 20:22:00,
2013-11-10 15:23:00,45.9,31.9,29.14,SSW,202,3.1,3.1,58,0.00,,---,0.00,VWS V13.01,2013-11-10 20:23:00,
2013-11-10 15:24:00,45.7,32.2,29.14,SSW,202,3.1,3.1,59,0.00,,---,0.00,VWS V13.01,2013-11-10 20:24:00,
2013-11-10 15:26:00,45.7,31.8,29.14,SSW,202,3.1,3.1,58,0.00,,---,0.00,VWS V13.01,2013-11-10 20:26:00,
2013-11-10 15:28:00,45.7,31.8,29.14,SSW,202,3.1,3.1,58,0.00,,---,0.00,VWS V13.01,2013-11-10 20:28:00,
2013-11-10 15:30:00,45.9,31.9,29.17,SSW,202,3.1,3.1,58,0.00,,---,0.00,VWS V13.01,2013-11-10 20:30:00,
2013-11-10 15:32:00,45.9,31.9,29.17,SSW,202,3.1,3.1,58,0.00,,---,0.00,VWS V13.01,2013-11-10 20:32:00,
2013-11-10 15:34:00,46.0,32.1,29.17,SSW,202,3.1,3.1,58,0.00,,---,0.00,VWS V13.01,2013-11-10 20:34:00,
2013-11-10 15:38:00,46.0,32.5,29.17,SSW,202,3.1,3.1,59,0.00,,---,0.00,VWS V13.01,2013-11-10 20:38:00,
2013-11-10 15:39:00,46.0,32.1,29.17,SSW,202,3.1,3.1,58,0.00,,---,0.00,VWS V13.01,2013-11-10 20:39:00,
2013-11-10 15:40:00,46.0,32.1,29.17,SSW,202,3.1,3.1,58,0.00,,---,0.00,VWS V13.01,2013-11-10 20:40:00,
2013-11-10 15:44:00,46.0,32.5,29.17,SSW,202,3.1,3.1,59,0.00,,---,0.00,VWS V13.01,2013-11-10 20:44:00,
2013-11-10 15:45:00,46.0,32.5,29.17,SSW,202,3.1,3.1,59,0.00,,---,0.00,VWS V13.01,2013-11-10 20:45:00,
2013-11-10 15:47:00,46.0,32.5,29.17,SSW,202,3.1,3.1,59,0.00,,---,0.00,VWS V13.01,2013-11-10 20:47:00,
2013-11-10 15:48:00,46.0,32.1,29.17,SSW,202,3.1,3.1,58,0.00,,---,0.00,VWS V13.01,2013-11-10 20:48:00,
2013-11-10 15:50:00,46.0,32.1,29.17,SSW,202,3.1,3.1,58,0.00,,---,0.00,VWS V13.01,2013-11-10 20:50:00,
2013-11-10 15:51:00,46.0,32.1,29.17,SSW,202,3.1,3.1,58,0.00,,---,0.00,VWS V13.01,2013-11-10 20:51:00,
2013-11-10 15:53:00,46.0,32.1,29.17,SSE,158,2.0,2.0,58,0.00,,---,0.00,VWS V13.01,2013-11-10 20:53:00,
2013-11-10 15:54:00,46.0,32.1,29.17,SSE,158,2.0,2.0,58,0.00,,---,0.00,VWS V13.01,2013-11-10 20:54:00,
2013-11-10 15:55:00,46.0,32.5,29.17,SSE,158,2.0,2.0,59,0.00,,---,0.00,VWS V13.01,2013-11-10 20:55:00,
2013-11-10 15:58:00,46.0,32.5,29.17,SSW,202,2.5,2.5,59,0.00,,---,0.00,VWS V13.01,2013-11-10 20:58:00,
2013-11-10 15:59:00,46.0,32.5,29.17,SSW,202,2.5,2.5,59,0.00,,---,0.00,VWS V13.01,2013-11-10 20:59:00,
2013-11-10 16:01:00,46.0,32.5,29.17,SSW,202,2.5,2.5,59,0.00,,---,0.00,VWS V13.01,2013-11-10 21:01:00,
2013-11-10 16:05:00,46.0,31.7,29.17,NW,315,0.0,0.0,57,0.00,,---,0.00,VWS V13.01,2013-11-10 21:05:00,
2013-11-10 16:06:00,46.0,31.7,29.17,NW,315,0.0,0.0,57,0.00,,---,0.00,VWS V13.01,2013-11-10 21:06:00,
2013-11-10 16:07:00,46.0,31.7,29.17,NW,315,0.0,0.0,57,0.00,,---,0.00,VWS V13.01,2013-11-10 21:07:00,
2013-11-10 16:09:00,46.0,31.7,29.17,NW,315,0.0,0.0,57,0.00,,---,0.00,VWS V13.01,2013-11-10 21:09:00,
2013-11-10 16:11:00,46.2,31.8,29.17,NW,315,0.0,0.0,57,0.00,,---,0.00,VWS V13.01,2013-11-10 21:11:00,
2013-11-10 16:12:00,46.2,31.8,29.17,NW,315,0.0,0.0,57,0.00,,---,0.00,VWS V13.01,2013-11-10 21:12:00,
2013-11-10 16:13:00,46.2,31.8,29.17,SW,225,1.6,1.6,57,0.00,,---,0.00,VWS V13.01,2013-11-10 21:13:00,
2013-11-10 16:15:00,46.2,31.8,29.17,SW,225,1.6,1.6,57,0.00,,---,0.00,VWS V13.01,2013-11-10 21:15:00,
2013-11-10 16:17:00,46.2,31.8,29.17,SW,225,1.6,1.6,57,0.00,,---,0.00,VWS V13.01,2013-11-10 21:17:00,
2013-11-10 16:18:00,45.7,31.3,29.17,WNW,292,1.1,1.6,57,0.00,,---,0.00,VWS V13.01,2013-11-10 21:18:00,
2013-11-10 16:19:00,45.7,31.3,29.17,WNW,292,1.1,1.1,57,0.00,,---,0.00,VWS V13.01,2013-11-10 21:19:00,
2013-11-10 16:22:00,45.7,31.3,29.17,NNE,22,2.0,2.0,57,0.00,,---,0.00,VWS V13.01,2013-11-10 21:22:00,
2013-11-10 16:23:00,45.7,31.3,29.17,NNE,22,2.0,2.0,57,0.00,,---,0.00,VWS V13.01,2013-11-10 21:23:00,
2013-11-10 16:25:00,45.7,31.3,29.17,SSW,202,1.6,1.6,57,0.00,,---,0.00,VWS V13.01,2013-11-10 21:25:00,
2013-11-10 16:26:00,45.7,31.3,29.17,SSW,202,1.6,1.6,57,0.00,,---,0.00,VWS V13.01,2013-11-10 21:26:00,
2013-11-10 16:27:00,45.7,31.3,29.17,SSW,202,1.6,1.6,57,0.00,,---,0.00,VWS V13.01,2013-11-10 21:27:00,
2013-11-10 16:29:00,45.7,31.3,29.17,SSW,202,1.6,1.6,57,0.00,,---,0.00,VWS V13.01,2013-11-10 21:29:00,
2013-11-10 16:31:00,45.7,31.3,29.17,SSW,202,1.6,1.6,57,0.00,,---,0.00,VWS V13.01,2013-11-10 21:31:00,
2013-11-10 16:33:00,45.7,31.3,29.17,SSW,202,1.6,1.6,57,0.00,,---,0.00,VWS V13.01,2013-11-10 21:33:00,
2013-11-10 16:34:00,45.1,31.3,29.17,SW,225,2.5,2.5,58,0.00,,---,0.00,VWS V13.01,2013-11-10 21:34:00,
2013-11-10 16:36:00,45.1,31.3,29.17,SW,225,2.5,2.5,58,0.00,,---,0.00,VWS V13.01,2013-11-10 21:36:00,
2013-11-10 16:38:00,45.1,31.3,29.17,SW,225,2.5,2.5,58,0.00,,---,0.00,VWS V13.01,2013-11-10 21:38:00,
2013-11-10 16:39:00,45.1,31.3,29.17,WNW,292,4.3,4.3,58,0.00,,---,0.00,VWS V13.01,2013-11-10 21:39:00,
2013-11-10 16:41:00,45.1,31.3,29.17,WNW,292,4.3,4.3,58,0.00,,---,0.00,VWS V13.01,2013-11-10 21:41:00,
2013-11-10 16:43:00,45.1,31.3,29.17,West,270,0.9,0.9,58,0.00,,---,0.00,VWS V13.01,2013-11-10 21:43:00,
2013-11-10 16:45:00,45.1,31.3,29.17,West,270,2.7,2.7,58,0.00,,---,0.00,VWS V13.01,2013-11-10 21:45:00,
2013-11-10 16:47:00,45.1,31.3,29.17,West,270,2.9,2.9,58,0.00,,---,0.00,VWS V13.01,2013-11-10 21:47:00,
2013-11-10 16:50:00,44.6,30.8,29.17,West,270,4.0,4.0,58,0.00,,---,0.00,VWS V13.01,2013-11-10 21:50:00,
2013-11-10 16:51:00,44.6,30.8,29.17,West,270,4.0,4.0,58,0.00,,---,0.00,VWS V13.01,2013-11-10 21:51:00,
2013-11-10 16:53:00,44.6,30.8,29.17,WNW,292,2.9,4.0,58,0.00,,---,0.00,VWS V13.01,2013-11-10 21:53:00,
2013-11-10 16:55:00,44.6,30.8,29.17,WNW,292,2.9,2.9,58,0.00,,---,0.00,VWS V13.01,2013-11-10 21:55:00,
2013-11-10 16:56:00,44.6,30.8,29.17,WNW,292,2.9,2.9,58,0.00,,---,0.00,VWS V13.01,2013-11-10 21:56:00,
2013-11-10 16:59:00,44.6,30.8,29.17,NW,315,2.0,2.9,58,0.00,,---,0.00,VWS V13.01,2013-11-10 21:59:00,
2013-11-10 17:01:00,44.6,30.8,29.17,WNW,292,2.0,2.0,58,0.00,,---,0.00,VWS V13.01,2013-11-10 22:01:00,
2013-11-10 17:02:00,44.6,30.8,29.17,WNW,292,2.0,2.0,58,0.00,,---,0.00,VWS V13.01,2013-11-10 22:02:00,
2013-11-10 17:03:00,44.6,30.8,29.17,WNW,292,2.0,2.0,58,0.00,,---,0.00,VWS V13.01,2013-11-10 22:03:00,
2013-11-10 17:05:00,44.6,30.8,29.17,SW,225,2.7,2.7,58,0.00,,---,0.00,VWS V13.01,2013-11-10 22:05:00,
2013-11-10 17:07:00,44.6,30.8,29.17,West,270,1.1,1.1,58,0.00,,---,0.00,VWS V13.01,2013-11-10 22:07:00,
2013-11-10 17:09:00,44.6,30.8,29.17,SSW,202,0.9,1.1,58,0.00,,---,0.00,VWS V13.01,2013-11-10 22:09:00,
2013-11-10 17:10:00,44.6,30.8,29.17,SSW,202,0.9,0.9,58,0.00,,---,0.00,VWS V13.01,2013-11-10 22:10:00,
2013-11-10 17:12:00,44.6,30.8,29.17,WSW,248,2.2,2.2,58,0.00,,---,0.00,VWS V13.01,2013-11-10 22:12:00,
2013-11-10 17:13:00,44.6,30.8,29.17,WSW,248,2.2,2.2,58,0.00,,---,0.00,VWS V13.01,2013-11-10 22:13:00,
2013-11-10 17:14:00,44.6,30.8,29.17,WSW,248,2.2,2.2,58,0.00,,---,0.00,VWS V13.01,2013-11-10 22:14:00,
2013-11-10 17:15:00,44.6,30.8,29.17,WSW,248,2.2,2.2,58,0.00,,---,0.00,VWS V13.01,2013-11-10 22:15:00,
2013-11-10 17:16:00,44.6,30.8,29.17,NNW,338,2.2,2.2,58,0.00,,---,0.00,VWS V13.01,2013-11-10 22:16:00,
2013-11-10 17:18:00,44.6,30.8,29.17,NNW,338,2.2,2.2,58,0.00,,---,0.00,VWS V13.01,2013-11-10 22:18:00,
2013-11-10 17:19:00,44.2,30.8,29.17,NNW,338,2.2,2.2,59,0.00,,---,0.00,VWS V13.01,2013-11-10 22:19:00,
2013-11-10 17:21:00,44.2,30.8,29.17,West,270,1.3,2.2,59,0.00,,---,0.00,VWS V13.01,2013-11-10 22:21:00,
2013-11-10 17:22:00,44.2,30.8,29.17,WSW,248,2.9,2.9,59,0.00,,---,0.00,VWS V13.01,2013-11-10 22:22:00,
2013-11-10 17:23:00,44.2,30.8,29.17,WSW,248,2.9,2.9,59,0.00,,---,0.00,VWS V13.01,2013-11-10 22:23:00,
2013-11-10 17:25:00,44.2,30.8,29.17,WSW,248,2.9,2.9,59,0.00,,---,0.00,VWS V13.01,2013-11-10 22:25:00,
2013-11-10 17:27:00,43.9,30.5,29.17,WSW,248,2.9,2.9,59,0.00,,---,0.00,VWS V13.01,2013-11-10 22:27:00,
2013-11-10 17:29:00,43.9,30.5,29.17,WSW,248,2.9,2.9,59,0.00,,---,0.00,VWS V13.01,2013-11-10 22:29:00,
2013-11-10 17:31:00,43.9,30.5,29.17,WSW,248,2.9,2.9,59,0.00,,---,0.00,VWS V13.01,2013-11-10 22:31:00,
2013-11-10 17:32:00,43.9,30.5,29.17,WSW,248,2.9,2.9,59,0.00,,---,0.00,VWS V13.01,2013-11-10 22:32:00,
2013-11-10 17:33:00,43.9,30.5,29.17,WSW,248,2.9,2.9,59,0.00,,---,0.00,VWS V13.01,2013-11-10 22:33:00,
2013-11-10 17:34:00,43.9,30.5,29.17,WSW,248,2.9,2.9,59,0.00,,---,0.00,VWS V13.01,2013-11-10 22:34:00,
2013-11-10 17:35:00,43.9,30.5,29.17,WSW,248,2.9,2.9,59,0.00,,---,0.00,VWS V13.01,2013-11-10 22:35:00,
2013-11-10 17:37:00,43.9,30.1,29.17,WSW,248,2.9,2.9,58,0.00,,---,0.00,VWS V13.01,2013-11-10 22:37:00,
2013-11-10 17:38:00,43.9,30.1,29.17,WSW,248,2.9,2.9,58,0.00,,---,0.00,VWS V13.01,2013-11-10 22:38:00,
2013-11-10 17:39:00,43.9,30.1,29.17,WSW,248,2.9,2.9,58,0.00,,---,0.00,VWS V13.01,2013-11-10 22:39:00,
2013-11-10 17:41:00,43.9,30.1,29.17,SSW,202,0.0,2.9,58,0.00,,---,0.00,VWS V13.01,2013-11-10 22:41:00,
2013-11-10 17:43:00,43.9,30.1,29.17,SSW,202,0.0,0.0,58,0.00,,---,0.00,VWS V13.01,2013-11-10 22:43:00,
2013-11-10 17:47:00,43.9,30.1,29.17,SSW,202,0.0,0.0,58,0.00,,---,0.00,VWS V13.01,2013-11-10 22:47:00,
2013-11-10 17:48:00,43.9,30.1,29.17,SSW,202,0.0,0.0,58,0.00,,---,0.00,VWS V13.01,2013-11-10 22:48:00,
2013-11-10 17:49:00,43.9,30.1,29.17,SSW,202,0.0,0.0,58,0.00,,---,0.00,VWS V13.01,2013-11-10 22:49:00,
2013-11-10 17:51:00,43.9,30.1,29.17,SSW,202,0.0,0.0,58,0.00,,---,0.00,VWS V13.01,2013-11-10 22:51:00,
2013-11-10 17:52:00,43.9,30.1,29.17,SSW,202,0.0,0.0,58,0.00,,---,0.00,VWS V13.01,2013-11-10 22:52:00,
2013-11-10 17:54:00,43.9,30.1,29.17,WSW,248,1.3,1.3,58,0.00,,---,0.00,VWS V13.01,2013-11-10 22:54:00,
2013-11-10 17:55:00,43.9,30.1,29.17,WSW,248,1.3,1.3,58,0.00,,---,0.00,VWS V13.01,2013-11-10 22:55:00,
2013-11-10 17:57:00,43.9,30.1,29.17,WSW,248,1.3,1.3,58,0.00,,---,0.00,VWS V13.01,2013-11-10 22:57:00,
2013-11-10 17:59:00,43.9,30.1,29.17,NW,315,2.7,2.7,58,0.00,,---,0.00,VWS V13.01,2013-11-10 22:59:00,
2013-11-10 18:00:00,43.9,30.1,29.17,NW,315,2.7,2.7,58,0.00,,---,0.00,VWS V13.01,2013-11-10 23:00:00,
2013-11-10 18:01:00,43.9,30.1,29.20,NW,315,2.7,2.7,58,0.00,,---,0.00,VWS V13.01,2013-11-10 23:01:00,
2013-11-10 18:03:00,43.9,30.1,29.20,NW,315,2.7,2.7,58,0.00,,---,0.00,VWS V13.01,2013-11-10 23:03:00,
2013-11-10 18:04:00,43.9,30.1,29.20,NW,315,2.7,2.7,58,0.00,,---,0.00,VWS V13.01,2013-11-10 23:04:00,
2013-11-10 18:05:00,43.9,30.1,29.20,NW,315,2.7,2.7,58,0.00,,---,0.00,VWS V13.01,2013-11-10 23:05:00,
2013-11-10 18:07:00,43.9,30.1,29.20,NW,315,2.7,2.7,58,0.00,,---,0.00,VWS V13.01,2013-11-10 23:07:00,
2013-11-10 18:11:00,43.9,30.1,29.20,NW,315,2.7,2.7,58,0.00,,---,0.00,VWS V13.01,2013-11-10 23:11:00,
2013-11-10 18:13:00,43.9,30.1,29.20,NW,315,2.7,2.7,58,0.00,,---,0.00,VWS V13.01,2013-11-10 23:13:00,
2013-11-10 18:14:00,43.3,29.6,29.20,NW,315,2.7,2.7,58,0.00,,---,0.00,VWS V13.01,2013-11-10 23:14:00,
2013-11-10 18:16:00,43.2,29.8,29.20,NW,315,2.7,2.7,59,0.00,,---,0.00,VWS V13.01,2013-11-10 23:16:00,
2013-11-10 18:17:00,43.2,29.8,29.20,NW,315,2.7,2.7,59,0.00,,---,0.00,VWS V13.01,2013-11-10 23:17:00,
2013-11-10 18:18:00,43.2,29.8,29.20,NW,315,2.7,2.7,59,0.00,,---,0.00,VWS V13.01,2013-11-10 23:18:00,
2013-11-10 18:19:00,43.2,29.8,29.20,NW,315,2.7,2.7,59,0.00,,---,0.00,VWS V13.01,2013-11-10 23:19:00,
2013-11-10 18:22:00,43.2,29.4,29.20,NW,315,2.7,2.7,58,0.00,,---,0.00,VWS V13.01,2013-11-10 23:22:00,
2013-11-10 18:23:00,43.2,29.4,29.20,NW,315,2.7,2.7,58,0.00,,---,0.00,VWS V13.01,2013-11-10 23:23:00,
2013-11-10 18:24:00,43.2,29.4,29.20,NW,315,2.7,2.7,58,0.00,,---,0.00,VWS V13.01,2013-11-10 23:24:00,
2013-11-10 18:25:00,43.2,29.4,29.20,NW,315,2.7,2.7,58,0.00,,---,0.00,VWS V13.01,2013-11-10 23:25:00,
2013-11-10 18:26:00,43.2,29.4,29.20,NW,315,2.7,2.7,58,0.00,,---,0.00,VWS V13.01,2013-11-10 23:26:00,
2013-11-10 18:29:00,43.0,29.6,29.20,NW,315,2.7,2.7,59,0.00,,---,0.00,VWS V13.01,2013-11-10 23:29:00,
2013-11-10 18:31:00,43.0,29.6,29.20,NW,315,2.7,2.7,59,0.00,,---,0.00,VWS V13.01,2013-11-10 23:31:00,
2013-11-10 18:34:00,43.0,29.6,29.20,NW,315,2.7,2.7,59,0.00,,---,0.00,VWS V13.01,2013-11-10 23:34:00,
2013-11-10 18:36:00,42.8,29.5,29.20,NW,315,2.7,2.7,59,0.00,,---,0.00,VWS V13.01,2013-11-10 23:36:00,
2013-11-10 18:37:00,42.8,29.5,29.20,NW,315,2.7,2.7,59,0.00,,---,0.00,VWS V13.01,2013-11-10 23:37:00,
2013-11-10 18:39:00,42.8,29.5,29.20,NW,315,2.7,2.7,59,0.00,,---,0.00,VWS V13.01,2013-11-10 23:39:00,
2013-11-10 18:41:00,42.8,29.5,29.20,NW,315,2.7,2.7,59,0.00,,---,0.00,VWS V13.01,2013-11-10 23:41:00,
2013-11-10 18:42:00,42.8,29.5,29.20,NW,315,2.7,2.7,59,0.00,,---,0.00,VWS V13.01,2013-11-10 23:42:00,
2013-11-10 18:44:00,42.6,29.7,29.20,NW,315,2.7,2.7,60,0.00,,---,0.00,VWS V13.01,2013-11-10 23:44:00,
2013-11-10 18:45:00,42.6,29.7,29.20,NW,315,2.7,2.7,60,0.00,,---,0.00,VWS V13.01,2013-11-10 23:45:00,
2013-11-10 18:46:00,42.6,29.7,29.20,NW,315,2.7,2.7,60,0.00,,---,0.00,VWS V13.01,2013-11-10 23:46:00,
2013-11-10 18:49:00,42.8,29.9,29.20,NW,315,2.7,2.7,60,0.00,,---,0.00,VWS V13.01,2013-11-10 23:49:00,
2013-11-10 18:50:00,42.8,29.9,29.20,NW,315,2.7,2.7,60,0.00,,---,0.00,VWS V13.01,2013-11-10 23:50:00,
2013-11-10 18:52:00,43.3,30.0,29.20,NW,315,2.7,2.7,59,0.00,,---,0.00,VWS V13.01,2013-11-10 23:52:00,
2013-11-10 18:54:00,43.3,30.0,29.20,SSW,202,1.1,2.7,59,0.00,,---,0.00,VWS V13.01,2013-11-10 23:54:00,
2013-11-10 18:57:00,43.5,30.2,29.23,SSW,202,1.1,1.1,59,0.00,,---,0.00,VWS V13.01,2013-11-10 23:57:00,
2013-11-10 18:58:00,43.5,30.2,29.23,SSW,202,1.1,1.1,59,0.00,,---,0.00,VWS V13.01,2013-11-10 23:58:00,
2013-11-10 18:59:00,43.5,30.2,29.23,SSW,202,1.1,1.1,59,0.00,,---,0.00,VWS V13.01,2013-11-10 23:59:00,
2013-11-10 19:01:00,43.5,30.2,29.23,SSW,202,1.1,1.1,59,0.00,,---,0.00,VWS V13.01,2013-11-11 00:01:00,
2013-11-10 19:02:00,43.5,30.2,29.23,SSW,202,1.1,1.1,59,0.00,,---,0.00,VWS V13.01,2013-11-11 00:02:00,
2013-11-10 19:04:00,43.5,30.2,29.23,SSW,202,1.1,1.1,59,0.00,,---,0.00,VWS V13.01,2013-11-11 00:04:00,
2013-11-10 19:07:00,43.5,30.2,29.23,SSW,202,1.1,1.1,59,0.00,,---,0.00,VWS V13.01,2013-11-11 00:07:00,
2013-11-10 19:08:00,43.5,30.2,29.23,SSW,202,1.1,1.1,59,0.00,,---,0.00,VWS V13.01,2013-11-11 00:08:00,
2013-11-10 19:09:00,43.5,30.2,29.23,SSW,202,1.1,1.1,59,0.00,,---,0.00,VWS V13.01,2013-11-11 00:09:00,
2013-11-10 19:12:00,43.3,29.6,29.23,SSW,202,1.1,1.1,58,0.00,,---,0.00,VWS V13.01,2013-11-11 00:12:00,
2013-11-10 19:14:00,43.5,29.7,29.23,SSW,202,1.1,1.1,58,0.00,,---,0.00,VWS V13.01,2013-11-11 00:14:00,
2013-11-10 19:16:00,43.3,30.0,29.23,SSW,202,1.1,1.1,59,0.00,,---,0.00,VWS V13.01,2013-11-11 00:16:00,
2013-11-10 19:17:00,43.3,30.0,29.23,SSW,202,1.1,1.1,59,0.00,,---,0.00,VWS V13.01,2013-11-11 00:17:00,
2013-11-10 19:20:00,43.5,30.2,29.23,SSW,202,1.1,1.1,59,0.00,,---,0.00,VWS V13.01,2013-11-11 00:20:00,
2013-11-10 19:25:00,43.7,30.3,29.23,NNE,22,2.7,2.7,59,0.00,,---,0.00,VWS V13.01,2013-11-11 00:25:00,
2013-11-10 19:26:00,43.7,30.3,29.23,NNE,22,2.7,2.7,59,0.00,,---,0.00,VWS V13.01,2013-11-11 00:26:00,
2013-11-10 19:27:00,44.1,30.2,29.23,NNE,22,0.0,2.7,58,0.00,,---,0.00,VWS V13.01,2013-11-11 00:27:00,
2013-11-10 19:28:00,44.1,30.2,29.23,NNE,22,0.0,0.0,58,0.00,,---,0.00,VWS V13.01,2013-11-11 00:28:00,
2013-11-10 19:31:00,44.1,30.2,29.23,SSE,158,2.0,2.0,58,0.00,,---,0.00,VWS V13.01,2013-11-11 00:31:00,
2013-11-10 19:32:00,44.1,30.2,29.23,SSE,158,2.0,2.0,58,0.00,,---,0.00,VWS V13.01,2013-11-11 00:32:00,
2013-11-10 19:33:00,44.1,30.2,29.23,SSE,158,2.0,2.0,58,0.00,,---,0.00,VWS V13.01,2013-11-11 00:33:00,
2013-11-10 19:36:00,44.1,30.2,29.23,SSE,158,2.0,2.0,58,0.00,,---,0.00,VWS V13.01,2013-11-11 00:36:00,
2013-11-10 19:38:00,44.1,30.2,29.23,SSE,158,2.0,2.0,58,0.00,,---,0.00,VWS V13.01,2013-11-11 00:38:00,
2013-11-10 19:40:00,44.1,30.2,29.23,SSE,158,2.0,2.0,58,0.00,,---,0.00,VWS V13.01,2013-11-11 00:40:00,
2013-11-10 19:41:00,44.1,30.2,29.23,SSE,158,2.0,2.0,58,0.00,,---,0.00,VWS V13.01,2013-11-11 00:41:00,
2013-11-10 19:42:00,44.1,30.2,29.23,SSE,158,2.0,2.0,58,0.00,,---,0.00,VWS V13.01,2013-11-11 00:42:00,
2013-11-10 19:43:00,44.4,30.2,29.23,SSE,158,2.0,2.0,57,0.00,,---,0.00,VWS V13.01,2013-11-11 00:43:00,
2013-11-10 19:47:00,44.4,30.6,29.23,SSE,158,2.0,2.0,58,0.00,,---,0.00,VWS V13.01,2013-11-11 00:47:00,
2013-11-10 19:48:00,44.4,30.6,29.23,SSE,158,2.0,2.0,58,0.00,,---,0.00,VWS V13.01,2013-11-11 00:48:00,
2013-11-10 19:49:00,44.4,30.6,29.23,SSE,158,2.0,2.0,58,0.00,,---,0.00,VWS V13.01,2013-11-11 00:49:00,
2013-11-10 19:52:00,44.4,30.2,29.23,SW,225,3.4,3.4,57,0.00,,---,0.00,VWS V13.01,2013-11-11 00:52:00,
2013-11-10 19:54:00,44.4,30.2,29.23,SW,225,3.4,3.4,57,0.00,,---,0.00,VWS V13.01,2013-11-11 00:54:00,
2013-11-10 19:55:00,44.4,30.2,29.23,SW,225,3.4,3.4,57,0.00,,---,0.00,VWS V13.01,2013-11-11 00:55:00,
2013-11-10 19:59:00,44.4,30.2,29.23,SSW,202,3.1,3.1,57,0.00,,---,0.00,VWS V13.01,2013-11-11 00:59:00,
2013-11-10 20:00:00,44.4,30.2,29.23,SSW,202,3.1,3.1,57,0.00,,---,0.00,VWS V13.01,2013-11-11 01:00:00,
2013-11-10 20:02:00,44.4,30.2,29.23,SSW,202,3.1,3.1,57,0.00,,---,0.00,VWS V13.01,2013-11-11 01:02:00,
2013-11-10 20:03:00,44.4,30.2,29.23,WSW,248,5.8,5.8,57,0.00,,---,0.00,VWS V13.01,2013-11-11 01:03:00,
2013-11-10 20:05:00,44.4,30.2,29.23,WSW,248,5.8,5.8,57,0.00,,---,0.00,VWS V13.01,2013-11-11 01:05:00,
2013-11-10 20:08:00,44.4,30.2,29.23,WSW,248,5.8,5.8,57,0.00,,---,0.00,VWS V13.01,2013-11-11 01:08:00,
2013-11-10 20:10:00,44.4,30.2,29.23,WSW,248,5.8,5.8,57,0.00,,---,0.00,VWS V13.01,2013-11-11 01:10:00,
2013-11-10 20:12:00,44.4,30.2,29.23,WSW,248,5.8,5.8,57,0.00,,---,0.00,VWS V13.01,2013-11-11 01:12:00,
2013-11-10 20:14:00,44.4,30.2,29.23,WSW,248,5.8,5.8,57,0.00,,---,0.00,VWS V13.01,2013-11-11 01:14:00,
2013-11-10 20:15:00,44.4,30.2,29.23,WSW,248,5.8,5.8,57,0.00,,---,0.00,VWS V13.01,2013-11-11 01:15:00,
2013-11-10 20:19:00,44.8,30.1,29.23,WSW,248,5.8,5.8,56,0.00,,---,0.00,VWS V13.01,2013-11-11 01:19:00,
2013-11-10 20:20:00,44.8,30.1,29.23,WSW,248,5.8,5.8,56,0.00,,---,0.00,VWS V13.01,2013-11-11 01:20:00,
2013-11-10 20:21:00,44.8,30.1,29.23,WSW,248,5.8,5.8,56,0.00,,---,0.00,VWS V13.01,2013-11-11 01:21:00,
2013-11-10 20:22:00,44.8,30.1,29.23,WSW,248,5.8,5.8,56,0.00,,---,0.00,VWS V13.01,2013-11-11 01:22:00,
2013-11-10 20:23:00,44.8,29.6,29.23,WSW,248,5.8,5.8,55,0.00,,---,0.00,VWS V13.01,2013-11-11 01:23:00,
2013-11-10 20:25:00,44.8,29.6,29.23,WSW,248,5.8,5.8,55,0.00,,---,0.00,VWS V13.01,2013-11-11 01:25:00,
2013-11-10 20:26:00,44.8,29.6,29.23,WSW,248,5.8,5.8,55,0.00,,---,0.00,VWS V13.01,2013-11-11 01:26:00,
2013-11-10 20:28:00,44.8,29.6,29.23,WSW,248,5.8,5.8,55,0.00,,---,0.00,VWS V13.01,2013-11-11 01:28:00,
2013-11-10 20:30:00,44.8,29.6,29.23,WSW,248,5.8,5.8,55,0.00,,---,0.00,VWS V13.01,2013-11-11 01:30:00,
2013-11-10 20:31:00,44.8,29.6,29.23,WSW,248,5.8,5.8,55,0.00,,---,0.00,VWS V13.01,2013-11-11 01:31:00,
2013-11-10 20:32:00,45.0,29.8,29.23,WSW,248,5.8,5.8,55,0.00,,---,0.00,VWS V13.01,2013-11-11 01:32:00,
2013-11-10 20:33:00,45.0,29.8,29.23,WSW,248,5.8,5.8,55,0.00,,---,0.00,VWS V13.01,2013-11-11 01:33:00,
2013-11-10 20:36:00,45.1,29.5,29.23,WSW,248,5.8,5.8,54,0.00,,---,0.00,VWS V13.01,2013-11-11 01:36:00,
2013-11-10 20:37:00,45.1,29.5,29.23,WSW,248,5.8,5.8,54,0.00,,---,0.00,VWS V13.01,2013-11-11 01:37:00,
2013-11-10 20:38:00,45.1,29.5,29.23,WSW,248,5.8,5.8,54,0.00,,---,0.00,VWS V13.01,2013-11-11 01:38:00,
2013-11-10 20:41:00,45.1,29.5,29.23,WSW,248,5.8,5.8,54,0.00,,---,0.00,VWS V13.01,2013-11-11 01:41:00,
2013-11-10 20:42:00,45.1,29.5,29.23,WSW,248,5.8,5.8,54,0.00,,---,0.00,VWS V13.01,2013-11-11 01:42:00,
2013-11-10 20:43:00,45.1,29.5,29.23,WSW,248,5.8,5.8,54,0.00,,---,0.00,VWS V13.01,2013-11-11 01:43:00,
2013-11-10 20:44:00,45.0,29.3,29.23,WSW,248,5.8,5.8,54,0.00,,---,0.00,VWS V13.01,2013-11-11 01:44:00,
2013-11-10 20:48:00,44.8,29.2,29.23,WSW,248,5.8,5.8,54,0.00,,---,0.00,VWS V13.01,2013-11-11 01:48:00,
2013-11-10 20:50:00,44.8,29.2,29.23,WSW,248,5.8,5.8,54,0.00,,---,0.00,VWS V13.01,2013-11-11 01:50:00,
2013-11-10 20:52:00,44.6,29.0,29.23,WSW,248,5.8,5.8,54,0.00,,---,0.00,VWS V13.01,2013-11-11 01:52:00,
2013-11-10 20:54:00,44.6,29.5,29.23,WSW,248,5.8,5.8,55,0.00,,---,0.00,VWS V13.01,2013-11-11 01:54:00,
2013-11-10 20:55:00,44.6,29.0,29.23,WSW,248,5.8,5.8,54,0.00,,---,0.00,VWS V13.01,2013-11-11 01:55:00,
2013-11-10 20:57:00,44.4,29.3,29.23,WSW,248,5.8,5.8,55,0.00,,---,0.00,VWS V13.01,2013-11-11 01:57:00,
2013-11-10 21:00:00,44.2,29.1,29.23,WSW,248,5.8,5.8,55,0.00,,---,0.00,VWS V13.01,2013-11-11 02:00:00,
2013-11-10 21:01:00,44.2,29.1,29.23,WSW,248,5.8,5.8,55,0.00,,---,0.00,VWS V13.01,2013-11-11 02:01:00,
2013-11-10 21:02:00,44.2,29.1,29.23,WSW,248,5.8,5.8,55,0.00,,---,0.00,VWS V13.01,2013-11-11 02:02:00,
2013-11-10 21:05:00,44.2,29.1,29.23,WSW,248,5.8,5.8,55,0.00,,---,0.00,VWS V13.01,2013-11-11 02:05:00,
2013-11-10 21:06:00,44.4,29.3,29.23,WSW,248,5.8,5.8,55,0.00,,---,0.00,VWS V13.01,2013-11-11 02:06:00,
2013-11-10 21:07:00,44.6,29.0,29.23,WSW,248,5.8,5.8,54,0.00,,---,0.00,VWS V13.01,2013-11-11 02:07:00,
2013-11-10 21:08:00,44.6,29.0,29.23,WSW,248,5.8,5.8,54,0.00,,---,0.00,VWS V13.01,2013-11-11 02:08:00,
2013-11-10 21:09:00,44.6,29.0,29.23,WSW,248,5.8,5.8,54,0.00,,---,0.00,VWS V13.01,2013-11-11 02:09:00,
2013-11-10 21:11:00,44.6,29.0,29.23,WSW,248,5.8,5.8,54,0.00,,---,0.00,VWS V13.01,2013-11-11 02:11:00,
2013-11-10 21:13:00,44.6,29.0,29.23,WSW,248,5.8,5.8,54,0.00,,---,0.00,VWS V13.01,2013-11-11 02:13:00,
2013-11-10 21:14:00,44.6,29.0,29.23,WSW,248,5.8,5.8,54,0.00,,---,0.00,VWS V13.01,2013-11-11 02:14:00,
2013-11-10 21:16:00,44.6,29.0,29.23,WSW,248,5.8,5.8,54,0.00,,---,0.00,VWS V13.01,2013-11-11 02:16:00,
2013-11-10 21:18:00,44.8,29.2,29.23,WSW,248,5.8,5.8,54,0.00,,---,0.00,VWS V13.01,2013-11-11 02:18:00,
2013-11-10 21:20:00,44.8,29.2,29.23,WSW,248,5.8,5.8,54,0.00,,---,0.00,VWS V13.01,2013-11-11 02:20:00,
2013-11-10 21:22:00,44.6,29.0,29.23,WSW,248,5.8,5.8,54,0.00,,---,0.00,VWS V13.01,2013-11-11 02:22:00,
2013-11-10 21:24:00,44.6,29.0,29.23,WSW,248,5.8,5.8,54,0.00,,---,0.00,VWS V13.01,2013-11-11 02:24:00,
2013-11-10 21:26:00,44.6,28.5,29.23,WSW,248,5.8,5.8,53,0.00,,---,0.00,VWS V13.01,2013-11-11 02:26:00,
2013-11-10 21:28:00,44.6,28.5,29.23,WSW,248,5.8,5.8,53,0.00,,---,0.00,VWS V13.01,2013-11-11 02:28:00,
2013-11-10 21:29:00,44.8,28.7,29.26,WSW,248,5.8,5.8,53,0.00,,---,0.00,VWS V13.01,2013-11-11 02:29:00,
2013-11-10 21:32:00,44.8,28.7,29.26,WSW,248,5.8,5.8,53,0.00,,---,0.00,VWS V13.01,2013-11-11 02:32:00,
2013-11-10 21:33:00,44.8,28.7,29.26,WSW,248,5.8,5.8,53,0.00,,---,0.00,VWS V13.01,2013-11-11 02:33:00,
2013-11-10 21:34:00,44.8,28.7,29.26,WSW,248,5.8,5.8,53,0.00,,---,0.00,VWS V13.01,2013-11-11 02:34:00,
2013-11-10 21:35:00,44.8,28.7,29.26,WSW,248,5.8,5.8,53,0.00,,---,0.00,VWS V13.01,2013-11-11 02:35:00,
2013-11-10 21:37:00,44.8,28.7,29.26,WSW,248,5.8,5.8,53,0.00,,---,0.00,VWS V13.01,2013-11-11 02:37:00,
2013-11-10 21:39:00,45.0,28.9,29.26,WSW,248,5.8,5.8,53,0.00,,---,0.00,VWS V13.01,2013-11-11 02:39:00,
2013-11-10 21:41:00,45.0,28.9,29.26,WSW,248,5.8,5.8,53,0.00,,---,0.00,VWS V13.01,2013-11-11 02:41:00,
2013-11-10 21:43:00,45.1,28.6,29.26,WSW,248,5.8,5.8,52,0.00,,---,0.00,VWS V13.01,2013-11-11 02:43:00,
2013-11-10 21:44:00,45.1,28.6,29.26,WSW,248,5.8,5.8,52,0.00,,---,0.00,VWS V13.01,2013-11-11 02:44:00,
2013-11-10 21:45:00,45.1,28.6,29.26,WSW,248,5.8,5.8,52,0.00,,---,0.00,VWS V13.01,2013-11-11 02:45:00,
2013-11-10 21:46:00,45.1,28.6,29.26,WSW,248,5.8,5.8,52,0.00,,---,0.00,VWS V13.01,2013-11-11 02:46:00,
2013-11-10 21:47:00,45.1,28.6,29.26,WSW,248,5.8,5.8,52,0.00,,---,0.00,VWS V13.01,2013-11-11 02:47:00,
2013-11-10 21:50:00,45.1,28.6,29.26,WSW,248,5.8,5.8,52,0.00,,---,0.00,VWS V13.01,2013-11-11 02:50:00,
2013-11-10 21:51:00,45.1,28.6,29.26,WSW,248,5.8,5.8,52,0.00,,---,0.00,VWS V13.01,2013-11-11 02:51:00,
2013-11-10 21:53:00,45.1,28.6,29.26,WSW,248,5.8,5.8,52,0.00,,---,0.00,VWS V13.01,2013-11-11 02:53:00,
2013-11-10 21:56:00,45.1,28.6,29.26,WSW,248,5.8,5.8,52,0.00,,---,0.00,VWS V13.01,2013-11-11 02:56:00,
2013-11-10 21:57:00,45.1,28.6,29.26,WSW,248,5.8,5.8,52,0.00,,---,0.00,VWS V13.01,2013-11-11 02:57:00,
2013-11-10 21:59:00,45.1,28.6,29.26,WSW,248,5.8,5.8,52,0.00,,---,0.00,VWS V13.01,2013-11-11 02:59:00,
2013-11-10 22:00:00,45.1,28.6,29.26,WSW,248,5.8,5.8,52,0.00,,---,0.00,VWS V13.01,2013-11-11 03:00:00,
2013-11-10 22:01:00,45.1,28.6,29.26,WSW,248,5.8,5.8,52,0.00,,---,0.00,VWS V13.01,2013-11-11 03:01:00,
2013-11-10 22:03:00,45.1,28.6,29.26,WSW,248,5.8,5.8,52,0.00,,---,0.00,VWS V13.01,2013-11-11 03:03:00,
2013-11-10 22:05:00,45.1,28.6,29.26,WSW,248,5.8,5.8,52,0.00,,---,0.00,VWS V13.01,2013-11-11 03:05:00,
2013-11-10 22:07:00,45.1,28.6,29.26,WSW,248,5.8,5.8,52,0.00,,---,0.00,VWS V13.01,2013-11-11 03:07:00,
2013-11-10 22:08:00,45.1,28.6,29.26,WSW,248,5.8,5.8,52,0.00,,---,0.00,VWS V13.01,2013-11-11 03:08:00,
2013-11-10 22:09:00,45.1,28.6,29.26,WSW,248,5.8,5.8,52,0.00,,---,0.00,VWS V13.01,2013-11-11 03:09:00,
2013-11-10 22:11:00,45.1,28.6,29.26,WSW,248,5.8,5.8,52,0.00,,---,0.00,VWS V13.01,2013-11-11 03:11:00,
2013-11-10 22:13:00,45.3,28.3,29.26,WSW,248,5.8,5.8,51,0.00,,---,0.00,VWS V13.01,2013-11-11 03:13:00,
2013-11-10 22:15:00,45.3,28.3,29.26,WSW,248,5.8,5.8,51,0.00,,---,0.00,VWS V13.01,2013-11-11 03:15:00,
2013-11-10 22:17:00,45.3,28.3,29.26,WSW,248,5.8,5.8,51,0.00,,---,0.00,VWS V13.01,2013-11-11 03:17:00,
2013-11-10 22:18:00,45.3,28.3,29.26,WSW,248,5.8,5.8,51,0.00,,---,0.00,VWS V13.01,2013-11-11 03:18:00,
2013-11-10 22:21:00,45.3,28.3,29.26,WSW,248,5.8,5.8,51,0.00,,---,0.00,VWS V13.01,2013-11-11 03:21:00,
2013-11-10 22:22:00,45.3,28.3,29.26,WSW,248,5.8,5.8,51,0.00,,---,0.00,VWS V13.01,2013-11-11 03:22:00,
2013-11-10 22:23:00,45.3,28.3,29.26,WSW,248,5.8,5.8,51,0.00,,---,0.00,VWS V13.01,2013-11-11 03:23:00,
2013-11-10 22:24:00,45.3,28.3,29.26,WSW,248,5.8,5.8,51,0.00,,---,0.00,VWS V13.01,2013-11-11 03:24:00,
2013-11-10 22:25:00,45.3,28.3,29.26,WSW,248,5.8,5.8,51,0.00,,---,0.00,VWS V13.01,2013-11-11 03:25:00,
2013-11-10 22:27:00,45.3,28.3,29.26,WSW,248,5.8,5.8,51,0.00,,---,0.00,VWS V13.01,2013-11-11 03:27:00,
2013-11-10 22:29:00,45.3,28.3,29.26,WSW,248,5.8,5.8,51,0.00,,---,0.00,VWS V13.01,2013-11-11 03:29:00,
2013-11-10 22:30:00,45.3,28.3,29.26,WSW,248,5.8,5.8,51,0.00,,---,0.00,VWS V13.01,2013-11-11 03:30:00,
2013-11-10 22:32:00,45.3,28.3,29.26,WSW,248,5.8,5.8,51,0.00,,---,0.00,VWS V13.01,2013-11-11 03:32:00,
2013-11-10 22:33:00,45.3,28.3,29.26,WSW,248,5.8,5.8,51,0.00,,---,0.00,VWS V13.01,2013-11-11 03:33:00,
2013-11-10 22:35:00,45.3,27.8,29.26,WSW,248,5.8,5.8,50,0.00,,---,0.00,VWS V13.01,2013-11-11 03:35:00,
2013-11-10 22:36:00,45.3,27.8,29.26,WSW,248,5.8,5.8,50,0.00,,---,0.00,VWS V13.01,2013-11-11 03:36:00,
2013-11-10 22:37:00,45.3,27.8,29.26,WSW,248,5.8,5.8,50,0.00,,---,0.00,VWS V13.01,2013-11-11 03:37:00,
2013-11-10 22:38:00,45.3,27.8,29.26,WSW,248,5.8,5.8,50,0.00,,---,0.00,VWS V13.01,2013-11-11 03:38:00,
2013-11-10 22:42:00,45.3,27.8,29.26,WSW,248,5.8,5.8,50,0.00,,---,0.00,VWS V13.01,2013-11-11 03:42:00,
2013-11-10 22:43:00,45.1,27.6,29.26,WSW,248,5.8,5.8,50,0.00,,---,0.00,VWS V13.01,2013-11-11 03:43:00,
2013-11-10 22:44:00,45.1,27.6,29.26,WSW,248,5.8,5.8,50,0.00,,---,0.00,VWS V13.01,2013-11-11 03:44:00,
2013-11-10 22:47:00,45.1,27.6,29.26,WSW,248,5.8,5.8,50,0.00,,---,0.00,VWS V13.01,2013-11-11 03:47:00,
2013-11-10 22:50:00,45.1,27.6,29.26,WSW,248,5.8,5.8,50,0.00,,---,0.00,VWS V13.01,2013-11-11 03:50:00,
2013-11-10 22:51:00,45.1,27.6,29.26,WSW,248,5.8,5.8,50,0.00,,---,0.00,VWS V13.01,2013-11-11 03:51:00,
2013-11-10 22:53:00,45.1,27.6,29.26,WSW,248,5.8,5.8,50,0.00,,---,0.00,VWS V13.01,2013-11-11 03:53:00,
2013-11-10 22:55:00,45.3,27.8,29.26,WSW,248,5.8,5.8,50,0.00,,---,0.00,VWS V13.01,2013-11-11 03:55:00,
2013-11-10 22:56:00,45.3,27.8,29.26,WSW,248,5.8,5.8,50,0.00,,---,0.00,VWS V13.01,2013-11-11 03:56:00,
2013-11-10 22:57:00,45.3,27.8,29.26,WSW,248,5.8,5.8,50,0.00,,---,0.00,VWS V13.01,2013-11-11 03:57:00,
2013-11-10 22:58:00,45.3,27.8,29.26,WSW,248,5.8,5.8,50,0.00,,---,0.00,VWS V13.01,2013-11-11 03:58:00,
2013-11-10 23:00:00,45.1,27.6,29.26,WSW,248,5.8,5.8,50,0.00,,---,0.00,VWS V13.01,2013-11-11 04:00:00,
2013-11-10 23:03:00,45.1,27.6,29.26,WSW,248,5.8,5.8,50,0.00,,---,0.00,VWS V13.01,2013-11-11 04:03:00,
2013-11-10 23:05:00,45.1,27.6,29.26,WSW,248,5.8,5.8,50,0.00,,---,0.00,VWS V13.01,2013-11-11 04:05:00,
2013-11-10 23:06:00,45.0,27.5,29.26,WSW,248,5.8,5.8,50,0.00,,---,0.00,VWS V13.01,2013-11-11 04:06:00,
2013-11-10 23:09:00,45.0,27.0,29.26,WSW,248,5.8,5.8,49,0.00,,---,0.00,VWS V13.01,2013-11-11 04:09:00,
2013-11-10 23:10:00,45.0,27.0,29.26,WSW,248,5.8,5.8,49,0.00,,---,0.00,VWS V13.01,2013-11-11 04:10:00,
2013-11-10 23:11:00,44.8,26.8,29.26,WSW,248,5.8,5.8,49,0.00,,---,0.00,VWS V13.01,2013-11-11 04:11:00,
2013-11-10 23:15:00,44.8,26.8,29.26,WSW,248,5.8,5.8,49,0.00,,---,0.00,VWS V13.01,2013-11-11 04:15:00,
2013-11-10 23:16:00,44.6,27.1,29.26,WSW,248,5.8,5.8,50,0.00,,---,0.00,VWS V13.01,2013-11-11 04:16:00,
2013-11-10 23:17:00,44.6,27.1,29.26,WSW,248,5.8,5.8,50,0.00,,---,0.00,VWS V13.01,2013-11-11 04:17:00,
2013-11-10 23:18:00,44.8,26.8,29.26,WSW,248,5.8,5.8,49,0.00,,---,0.00,VWS V13.01,2013-11-11 04:18:00,
2013-11-10 23:20:00,44.8,26.8,29.26,WSW,248,5.8,5.8,49,0.00,,---,0.00,VWS V13.01,2013-11-11 04:20:00,
2013-11-10 23:21:00,44.8,26.8,29.26,WSW,248,5.8,5.8,49,0.00,,---,0.00,VWS V13.01,2013-11-11 04:21:00,
2013-11-10 23:22:00,44.6,26.6,29.26,WSW,248,5.8,5.8,49,0.00,,---,0.00,VWS V13.01,2013-11-11 04:22:00,
2013-11-10 23:23:00,44.6,26.6,29.26,WSW,248,5.8,5.8,49,0.00,,---,0.00,VWS V13.01,2013-11-11 04:23:00,
2013-11-10 23:25:00,44.4,27.0,29.26,WSW,248,5.8,5.8,50,0.00,,---,0.00,VWS V13.01,2013-11-11 04:25:00,
2013-11-10 23:27:00,44.4,27.0,29.26,WSW,248,5.8,5.8,50,0.00,,---,0.00,VWS V13.01,2013-11-11 04:27:00,
2013-11-10 23:28:00,44.4,27.0,29.26,WSW,248,5.8,5.8,50,0.00,,---,0.00,VWS V13.01,2013-11-11 04:28:00,
2013-11-10 23:29:00,44.4,27.0,29.26,WSW,248,5.8,5.8,50,0.00,,---,0.00,VWS V13.01,2013-11-11 04:29:00,
2013-11-10 23:30:00,44.4,27.0,29.26,WSW,248,5.8,5.8,50,0.00,,---,0.00,VWS V13.01,2013-11-11 04:30:00,
2013-11-10 23:31:00,44.4,27.0,29.26,WSW,248,5.8,5.8,50,0.00,,---,0.00,VWS V13.01,2013-11-11 04:31:00,
2013-11-10 23:34:00,44.4,27.0,29.26,WSW,248,5.8,5.8,50,0.00,,---,0.00,VWS V13.01,2013-11-11 04:34:00,
2013-11-10 23:35:00,44.4,27.0,29.26,WSW,248,5.8,5.8,50,0.00,,---,0.00,VWS V13.01,2013-11-11 04:35:00,
2013-11-10 23:36:00,44.2,26.8,29.26,WSW,248,5.8,5.8,50,0.00,,---,0.00,VWS V13.01,2013-11-11 04:36:00,
2013-11-10 23:37:00,44.2,26.3,29.26,WSW,248,5.8,5.8,49,0.00,,---,0.00,VWS V13.01,2013-11-11 04:37:00,
2013-11-10 23:39:00,44.2,26.3,29.26,WSW,248,5.8,5.8,49,0.00,,---,0.00,VWS V13.01,2013-11-11 04:39:00,
2013-11-10 23:40:00,44.2,26.3,29.26,WSW,248,5.8,5.8,49,0.00,,---,0.00,VWS V13.01,2013-11-11 04:40:00,
2013-11-10 23:41:00,44.2,26.3,29.26,WSW,248,5.8,5.8,49,0.00,,---,0.00,VWS V13.01,2013-11-11 04:41:00,
2013-11-10 23:42:00,44.2,26.3,29.26,WSW,248,5.8,5.8,49,0.00,,---,0.00,VWS V13.01,2013-11-11 04:42:00,
2013-11-10 23:45:00,44.1,26.1,29.29,WSW,248,5.8,5.8,49,0.00,,---,0.00,VWS V13.01,2013-11-11 04:45:00,
2013-11-10 23:47:00,44.2,26.3,29.29,WSW,248,5.8,5.8,49,0.00,,---,0.00,VWS V13.01,2013-11-11 04:47:00,
2013-11-10 23:48:00,44.2,26.3,29.29,WSW,248,5.8,5.8,49,0.00,,---,0.00,VWS V13.01,2013-11-11 04:48:00,
2013-11-10 23:50:00,44.2,26.3,29.29,WSW,248,5.8,5.8,49,0.00,,---,0.00,VWS V13.01,2013-11-11 04:50:00,
2013-11-10 23:53:00,44.2,26.3,29.29,WSW,248,5.8,5.8,49,0.00,,---,0.00,VWS V13.01,2013-11-11 04:53:00,
2013-11-10 23:55:00,44.2,26.3,29.29,WSW,248,5.8,5.8,49,0.00,,---,0.00,VWS V13.01,2013-11-11 04:55:00,
2013-11-10 23:57:00,44.2,26.3,29.29,WSW,248,5.8,5.8,49,0.00,,---,0.00,VWS V13.01,2013-11-11 04:57:00,